FW4143 Weather Reports


time (UTC)temp
F
wind
direction
speed
knots
gust
knots
rain 1hr
in
rain 24hr
in
rain mn
in
humidity
%
barometer
mb
20260508230703 80 260 1.7 2.6 0.00 0.00 0.00 29 1008.8
20260508230603 80 260 1.7 2.6 0.00 0.00 0.00 29 1008.8
20260508230503 80 261 1.7 3.5 0.00 0.00 0.00 29 1008.8
20260508230403 80 261 1.7 3.5 0.00 0.00 0.00 30 1008.8
20260508230303 80 261 1.7 3.5 0.00 0.00 0.00 30 1008.8
20260508230203 80 261 0.9 3.5 0.00 0.00 0.00 30 1008.8
20260508230104 80 261 1.7 3.5 0.00 0.00 0.00 30 1008.8
20260508230004 80 262 1.7 3.5 0.00 0.00 0.00 29 1008.8
20260508225924 80 263 1.7 3.5 0.00 0.00 0.00 29 1008.8
20260508225825 80 264 1.7 3.5 0.00 0.00 0.00 29 1008.9
20260508225703 80 265 1.7 3.5 0.00 0.00 0.00 29 1008.8
20260508225604 80 265 1.7 3.5 0.00 0.00 0.00 29 1008.8
20260508225503 79 267 1.7 3.5 0.00 0.00 0.00 28 1008.9
20260508225404 79 267 1.7 3.5 0.00 0.00 0.00 28 1008.8
20260508225306 79 267 1.7 3.5 0.00 0.00 0.00 28 1008.9
20260508225203 79 266 1.7 3.5 0.00 0.00 0.00 29 1008.9
20260508225103 79 266 1.7 4.3 0.00 0.00 0.00 29 1008.9
20260508225024 80 266 1.7 4.3 0.00 0.00 0.00 29 1008.8
20260508224903 80 265 1.7 4.3 0.00 0.00 0.00 30 1008.9
20260508224824 80 264 1.7 4.3 0.00 0.00 0.00 29 1008.8
20260508224703 80 264 1.7 5.2 0.00 0.00 0.00 29 1008.8
20260508224603 80 263 1.7 5.2 0.00 0.00 0.00 30 1008.8
20260508224503 80 263 1.7 5.2 0.00 0.00 0.00 29 1008.9
20260508224424 80 263 1.7 5.2 0.00 0.00 0.00 29 1008.8
20260508224324 80 263 2.6 5.2 0.00 0.00 0.00 31 1008.9
20260508224204 80 264 2.6 5.2 0.00 0.00 0.00 31 1008.9
20260508224104 80 264 1.7 5.2 0.00 0.00 0.00 32 1008.8
20260508224003 80 264 1.7 5.2 0.00 0.00 0.00 33 1008.8
20260508223904 80 264 1.7 5.2 0.00 0.00 0.00 34 1008.8
20260508223803 80 264 1.7 5.2 0.00 0.00 0.00 34 1008.8
20260508223704 80 267 1.7 4.3 0.00 0.00 0.00 33 1008.8
20260508223603 80 267 2.6 5.2 0.00 0.00 0.00 33 1008.7
20260508223504 80 264 2.6 5.2 0.00 0.00 0.00 33 1008.7
20260508223403 80 271 2.6 5.2 0.00 0.00 0.00 34 1008.8
20260508223324 80 273 2.6 5.2 0.00 0.00 0.00 34 1008.7
20260508223203 80 271 2.6 5.2 0.00 0.00 0.00 34 1008.8
20260508223124 80 272 2.6 5.2 0.00 0.00 0.00 34 1008.7
20260508223003 80 280 2.6 5.2 0.00 0.00 0.00 35 1008.7
20260508222903 80 280 2.6 5.2 0.00 0.00 0.00 34 1008.7
20260508222824 80 280 2.6 5.2 0.00 0.00 0.00 34 1008.7
20260508222703 80 277 2.6 5.2 0.00 0.00 0.00 34 1008.7
20260508222603 80 277 2.6 4.3 0.00 0.00 0.00 34 1008.7
20260508222524 80 280 2.6 5.2 0.00 0.00 0.00 34 1008.7
20260508222403 80 272 2.6 6.1 0.00 0.00 0.00 34 1008.7
20260508222306 80 270 2.6 6.1 0.00 0.00 0.00 34 1008.7
20260508222203 80 269 2.6 6.1 0.00 0.00 0.00 34 1008.8
20260508222103 80 266 2.6 7.8 0.00 0.00 0.00 35 1008.8
20260508222003 80 261 2.6 7.8 0.00 0.00 0.00 34 1008.8
20260508221903 80 260 2.6 7.8 0.00 0.00 0.00 34 1008.8
20260508221803 80 259 2.6 7.8 0.00 0.00 0.00 34 1008.8
20260508221703 80 258 2.6 7.8 0.00 0.00 0.00 34 1008.9
20260508221624 80 258 2.6 7.8 0.00 0.00 0.00 34 1008.9
20260508221525 80 257 2.6 7.8 0.00 0.00 0.00 34 1008.9
20260508221404 80 256 2.6 7.8 0.00 0.00 0.00 34 1008.8
20260508221303 80 256 2.6 7.8 0.00 0.00 0.00 34 1008.8
20260508221203 80 256 2.6 7.8 0.00 0.00 0.00 35 1008.8
20260508221103 80 255 1.7 5.2 0.00 0.00 0.00 34 1008.8
20260508221004 80 254 1.7 5.2 0.00 0.00 0.00 34 1008.9
20260508220904 80 252 1.7 5.2 0.00 0.00 0.00 33 1008.9
20260508220803 80 251 1.7 5.2 0.00 0.00 0.00 34 1008.9
20260508220703 80 251 1.7 5.2 0.00 0.00 0.00 35 1008.9
20260508220603 80 250 2.6 5.2 0.00 0.00 0.00 35 1008.9
20260508220504 80 250 2.6 5.2 0.00 0.00 0.00 35 1008.9
20260508220403 80 249 2.6 5.2 0.00 0.00 0.00 34 1008.9
20260508220303 80 248 2.6 5.2 0.00 0.00 0.00 34 1009.0
20260508220203 80 248 2.6 5.2 0.00 0.00 0.00 34 1008.9
20260508220103 80 248 2.6 5.2 0.00 0.00 0.00 34 1009.0
20260508220004 80 248 2.6 5.2 0.00 0.00 0.00 35 1009.0
20260508215903 80 249 2.6 5.2 0.00 0.00 0.00 34 1009.0
20260508215803 80 250 2.6 5.2 0.00 0.00 0.00 35 1008.9
20260508215703 80 251 1.7 4.3 0.00 0.00 0.00 34 1009.0
20260508215603 80 252 1.7 4.3 0.00 0.00 0.00 35 1008.9
20260508215503 80 256 1.7 4.3 0.00 0.00 0.00 34 1009.0
20260508215403 80 260 1.7 4.3 0.00 0.00 0.00 35 1009.0
20260508215306 80 265 1.7 4.3 0.00 0.00 0.00 35 1009.0
20260508215224 80 268 1.7 4.3 0.00 0.00 0.00 35 1009.1
20260508215104 80 274 1.7 4.3 0.00 0.00 0.00 35 1009.0
20260508215003 80 280 1.7 4.3 0.00 0.00 0.00 36 1009.1
20260508214904 80 281 2.6 4.3 0.00 0.00 0.00 36 1009.1
20260508214803 80 279 2.6 4.3 0.00 0.00 0.00 36 1009.1
20260508214703 80 277 2.6 4.3 0.00 0.00 0.00 37 1009.1
20260508214625 80 277 2.6 4.3 0.00 0.00 0.00 37 1009.2
20260508214503 80 275 2.6 4.3 0.00 0.00 0.00 36 1009.2
20260508214424 80 273 2.6 4.3 0.00 0.00 0.00 36 1009.1
20260508214325 80 268 2.6 4.3 0.00 0.00 0.00 36 1009.1
20260508214204 80 262 2.6 4.3 0.00 0.00 0.00 36 1009.1
20260508214103 80 260 2.6 4.3 0.00 0.00 0.00 36 1009.1
20260508214003 80 256 2.6 4.3 0.00 0.00 0.00 36 1009.1
20260508213925 80 254 2.6 4.3 0.00 0.00 0.00 35 1009.1
20260508213803 80 254 2.6 5.2 0.00 0.00 0.00 35 1009.1
20260508213703 80 256 2.6 5.2 0.00 0.00 0.00 36 1009.1
20260508213624 80 258 2.6 5.2 0.00 0.00 0.00 35 1009.1
20260508213503 80 263 2.6 5.2 0.00 0.00 0.00 35 1009.1
20260508213424 80 264 2.6 5.2 0.00 0.00 0.00 36 1009.2
20260508213303 80 267 2.6 5.2 0.00 0.00 0.00 36 1009.1
20260508213203 80 269 2.6 5.2 0.00 0.00 0.00 36 1009.1
20260508213103 80 269 2.6 5.2 0.00 0.00 0.00 37 1009.1
20260508213003 80 269 2.6 5.2 0.00 0.00 0.00 37 1009.1
20260508212903 80 269 2.6 5.2 0.00 0.00 0.00 37 1009.1
20260508212824 80 269 2.6 4.3 0.00 0.00 0.00 37 1009.1
20260508212704 80 267 2.6 4.3 0.00 0.00 0.00 37 1009.2
20260508212603 80 265 2.6 4.3 0.00 0.00 0.00 37 1009.2
20260508212503 80 263 2.6 6.1 0.00 0.00 0.00 37 1009.2
20260508212404 80 260 2.6 6.1 0.00 0.00 0.00 38 1009.3
20260508212306 80 259 2.6 6.1 0.00 0.00 0.00 37 1009.3
20260508212203 80 257 2.6 6.1 0.00 0.00 0.00 37 1009.3
20260508212103 80 256 2.6 6.1 0.00 0.00 0.00 37 1009.3
20260508212003 80 256 2.6 6.1 0.00 0.00 0.00 37 1009.3
20260508211903 80 257 2.6 6.1 0.00 0.00 0.00 37 1009.3
20260508211803 80 257 2.6 6.1 0.00 0.00 0.00 37 1009.3
20260508211703 80 258 2.6 6.1 0.00 0.00 0.00 38 1009.3
20260508211603 80 258 2.6 6.1 0.00 0.00 0.00 39 1009.3
20260508211524 80 258 2.6 6.1 0.00 0.00 0.00 39 1009.4
20260508211403 80 258 2.6 5.2 0.00 0.00 0.00 39 1009.4
20260508211303 80 260 2.6 5.2 0.00 0.00 0.00 39 1009.4
20260508211203 80 262 2.6 5.2 0.00 0.00 0.00 38 1009.5
20260508211103 80 264 2.6 5.2 0.00 0.00 0.00 38 1009.5
20260508211003 80 266 2.6 5.2 0.00 0.00 0.00 39 1009.5
20260508210904 80 267 2.6 5.2 0.00 0.00 0.00 40 1009.6
20260508210803 80 266 2.6 5.2 0.00 0.00 0.00 39 1009.5
20260508210703 81 259 2.6 5.2 0.00 0.00 0.00 39 1009.6
20260508210603 81 257 2.6 5.2 0.00 0.00 0.00 39 1009.6
20260508210503 81 258 2.6 5.2 0.00 0.00 0.00 38 1009.6
20260508210403 81 258 2.6 5.2 0.00 0.00 0.00 39 1009.6
20260508210303 81 257 2.6 5.2 0.00 0.00 0.00 39 1009.6
20260508210203 81 252 2.6 6.1 0.00 0.00 0.00 39 1009.6
20260508210103 81 249 2.6 6.1 0.00 0.00 0.00 39 1009.6
20260508210003 81 247 3.5 6.1 0.00 0.00 0.00 39 1009.6
20260508205904 81 245 3.5 6.1 0.00 0.00 0.00 39 1009.7
20260508205803 81 242 2.6 6.1 0.00 0.00 0.00 39 1009.7
20260508205703 81 245 2.6 6.1 0.00 0.00 0.00 38 1009.7
20260508205603 81 245 2.6 6.1 0.00 0.00 0.00 38 1009.7
20260508205503 81 242 2.6 6.1 0.00 0.00 0.00 39 1009.7
20260508205403 81 238 2.6 6.1 0.00 0.00 0.00 39 1009.7
20260508205306 81 234 2.6 6.1 0.00 0.00 0.00 39 1009.7
20260508205203 81 233 2.6 6.1 0.00 0.00 0.00 39 1009.7
20260508205103 81 231 2.6 6.1 0.00 0.00 0.00 40 1009.8
20260508205003 81 229 2.6 6.1 0.00 0.00 0.00 40 1009.8
20260508204903 81 226 2.6 6.1 0.00 0.00 0.00 40 1009.8
20260508204803 81 230 2.6 6.1 0.00 0.00 0.00 40 1009.9
20260508204704 81 232 2.6 6.1 0.00 0.00 0.00 40 1009.9
20260508204603 81 234 2.6 6.1 0.00 0.00 0.00 39 1009.8
20260508204524 81 235 2.6 6.1 0.00 0.00 0.00 39 1009.8
20260508204403 81 244 2.6 6.1 0.00 0.00 0.00 38 1009.8
20260508204324 81 248 2.6 6.1 0.00 0.00 0.00 38 1009.9
20260508204203 81 252 2.6 6.1 0.00 0.00 0.00 36 1009.9
20260508204103 81 254 2.6 6.1 0.00 0.00 0.00 37 1009.8
20260508204003 81 259 2.6 7.8 0.00 0.00 0.00 36 1009.9
20260508203904 80 258 2.6 7.8 0.00 0.00 0.00 36 1009.9
20260508203803 80 254 2.6 7.8 0.00 0.00 0.00 35 1009.9
20260508203703 80 251 3.5 7.8 0.00 0.00 0.00 33 1009.9
20260508203603 80 248 3.5 7.8 0.00 0.00 0.00 35 1009.9
20260508203503 80 246 3.5 7.8 0.00 0.00 0.00 35 1009.9
20260508203403 80 243 2.6 7.8 0.00 0.00 0.00 34 1010.0
20260508203303 80 240 2.6 7.8 0.00 0.00 0.00 35 1010.0
20260508203203 80 241 2.6 7.8 0.00 0.00 0.00 36 1010.0
20260508203103 80 242 2.6 7.8 0.00 0.00 0.00 34 1010.0
20260508203003 80 238 2.6 7.0 0.00 0.00 0.00 33 1010.0
20260508202924 80 235 2.6 6.1 0.00 0.00 0.00 35 1010.0
20260508202803 79 235 2.6 6.1 0.00 0.00 0.00 35 1010.1
20260508202703 79 234 2.6 6.1 0.00 0.00 0.00 34 1010.2
20260508202603 79 231 2.6 6.1 0.00 0.00 0.00 35 1010.2
20260508202503 79 226 2.6 6.1 0.00 0.00 0.00 35 1010.2
20260508202403 79 225 2.6 6.1 0.00 0.00 0.00 35 1010.2
20260508202306 79 223 2.6 6.1 0.00 0.00 0.00 35 1010.2
20260508202203 79 219 2.6 6.1 0.00 0.00 0.00 36 1010.3
20260508202103 79 214 2.6 6.1 0.00 0.00 0.00 34 1010.3
20260508202003 79 211 2.6 5.2 0.00 0.00 0.00 33 1010.3
20260508201924 79 211 2.6 5.2 0.00 0.00 0.00 34 1010.3
20260508201803 79 210 2.6 5.2 0.00 0.00 0.00 34 1010.4
20260508201703 79 210 2.6 5.2 0.00 0.00 0.00 33 1010.4
20260508201603 79 210 2.6 5.2 0.00 0.00 0.00 33 1010.4
20260508201503 79 209 2.6 4.3 0.00 0.00 0.00 33 1010.4
20260508201403 79 208 1.7 4.3 0.00 0.00 0.00 34 1010.4
20260508201303 79 206 2.6 4.3 0.00 0.00 0.00 34 1010.4
20260508201203 79 205 2.6 4.3 0.00 0.00 0.00 35 1010.4
20260508201103 79 204 2.6 4.3 0.00 0.00 0.00 36 1010.4
20260508201003 79 202 1.7 4.3 0.00 0.00 0.00 36 1010.4
20260508200904 79 199 1.7 4.3 0.00 0.00 0.00 37 1010.5
20260508200824 79 200 1.7 4.3 0.00 0.00 0.00 36 1010.5
20260508200724 79 201 1.7 4.3 0.00 0.00 0.00 37 1010.5
20260508200603 79 204 1.7 4.3 0.00 0.00 0.00 36 1010.5
20260508200503 79 208 1.7 4.3 0.00 0.00 0.00 36 1010.5
20260508200403 79 209 1.7 4.3 0.00 0.00 0.00 37 1010.5
20260508200324 79 210 1.7 4.3 0.00 0.00 0.00 37 1010.5
20260508200203 79 214 1.7 4.3 0.00 0.00 0.00 36 1010.5
20260508200103 79 218 1.7 3.5 0.00 0.00 0.00 37 1010.5
20260508200003 79 221 1.7 3.5 0.00 0.00 0.00 37 1010.5
20260508195903 79 224 1.7 3.5 0.00 0.00 0.00 37 1010.6
20260508195824 79 227 1.7 3.5 0.00 0.00 0.00 36 1010.6
20260508195703 79 233 1.7 3.5 0.00 0.00 0.00 35 1010.6
20260508195603 79 236 1.7 3.5 0.00 0.00 0.00 35 1010.7
20260508195503 79 237 1.7 3.5 0.00 0.00 0.00 36 1010.6
20260508195403 79 238 1.7 3.5 0.00 0.00 0.00 36 1010.6
20260508195306 79 239 1.7 3.5 0.00 0.00 0.00 36 1010.7
20260508195203 79 240 1.7 3.5 0.00 0.00 0.00 35 1010.6
20260508195103 79 242 1.7 3.5 0.00 0.00 0.00 34 1010.6
20260508195024 79 243 1.7 3.5 0.00 0.00 0.00 34 1010.7
20260508194903 79 246 1.7 4.3 0.00 0.00 0.00 34 1010.7
20260508194824 79 247 1.7 4.3 0.00 0.00 0.00 34 1010.7
20260508194703 79 248 2.6 5.2 0.00 0.00 0.00 34 1010.7
20260508194603 79 246 1.7 5.2 0.00 0.00 0.00 35 1010.7
20260508194503 79 244 1.7 5.2 0.00 0.00 0.00 34 1010.7
20260508194403 78 241 2.6 5.2 0.00 0.00 0.00 33 1010.7
20260508194303 78 238 2.6 5.2 0.00 0.00 0.00 33 1010.7
20260508194203 78 235 2.6 5.2 0.00 0.00 0.00 34 1010.7
20260508194103 78 234 2.6 5.2 0.00 0.00 0.00 34 1010.8
20260508194024 78 231 2.6 5.2 0.00 0.00 0.00 35 1010.8
20260508193903 78 226 2.6 5.2 0.00 0.00 0.00 34 1010.8
20260508193824 78 225 2.6 5.2 0.00 0.00 0.00 36 1010.9
20260508193703 78 219 1.7 5.2 0.00 0.00 0.00 36 1010.9
20260508193603 79 221 2.6 5.2 0.00 0.00 0.00 36 1010.9
20260508193503 79 225 2.6 5.2 0.00 0.00 0.00 35 1010.9
20260508193403 79 228 2.6 5.2 0.00 0.00 0.00 35 1010.9
20260508193303 78 234 2.6 5.2 0.00 0.00 0.00 35 1010.9
20260508193204 78 237 2.6 5.2 0.00 0.00 0.00 35 1010.9
20260508193103 78 240 2.6 5.2 0.00 0.00 0.00 35 1010.9
20260508193003 78 243 2.6 5.2 0.00 0.00 0.00 34 1010.9
20260508192903 78 244 2.6 5.2 0.00 0.00 0.00 35 1010.9
20260508192803 78 242 2.6 5.2 0.00 0.00 0.00 35 1010.9
20260508192703 78 239 2.6 5.2 0.00 0.00 0.00 36 1010.9
20260508192603 78 236 2.6 5.2 0.00 0.00 0.00 36 1010.9
20260508192524 78 234 1.7 5.2 0.00 0.00 0.00 36 1010.9
20260508192403 78 226 1.7 5.2 0.00 0.00 0.00 36 1010.9
20260508192306 78 219 1.7 5.2 0.00 0.00 0.00 36 1011.0
20260508192203 78 213 1.7 5.2 0.00 0.00 0.00 36 1011.0
20260508192103 78 211 1.7 4.3 0.00 0.00 0.00 36 1010.9
20260508192024 78 213 2.6 7.0 0.00 0.00 0.00 36 1010.9
20260508191903 78 214 2.6 7.0 0.00 0.00 0.00 38 1010.9
20260508191824 78 216 2.6 7.0 0.00 0.00 0.00 37 1010.9
20260508191703 78 219 2.6 7.8 0.00 0.00 0.00 38 1010.9
20260508191603 78 224 2.6 7.8 0.00 0.00 0.00 37 1011.0
20260508191503 78 230 2.6 7.8 0.00 0.00 0.00 38 1011.0
20260508191424 78 233 2.6 7.8 0.00 0.00 0.00 38 1011.0
20260508191303 78 245 2.6 7.8 0.00 0.00 0.00 39 1011.1
20260508191224 78 252 2.6 7.8 0.00 0.00 0.00 39 1011.0
20260508191103 78 256 2.6 7.8 0.00 0.00 0.00 39 1011.0
20260508191004 79 252 2.6 7.8 0.00 0.00 0.00 38 1011.0
20260508190903 79 253 2.6 7.8 0.00 0.00 0.00 39 1011.0
20260508190803 79 252 2.6 7.8 0.00 0.00 0.00 39 1011.0
20260508190703 79 255 2.6 7.8 0.00 0.00 0.00 38 1011.0
20260508190603 79 248 2.6 6.1 0.00 0.00 0.00 39 1011.0
20260508190503 79 239 2.6 6.1 0.00 0.00 0.00 38 1011.0
20260508190424 79 232 2.6 6.1 0.00 0.00 0.00 38 1011.0
20260508190303 79 224 2.6 6.1 0.00 0.00 0.00 36 1011.0
20260508190203 79 219 2.6 6.1 0.00 0.00 0.00 36 1011.0
20260508190103 79 220 2.6 6.1 0.00 0.00 0.00 35 1011.0
20260508190003 78 224 2.6 6.1 0.00 0.00 0.00 36 1011.0
20260508185903 78 226 2.6 6.1 0.00 0.00 0.00 35 1011.1
20260508185803 78 227 2.6 6.1 0.00 0.00 0.00 34 1011.1
20260508185703 78 230 3.5 6.1 0.00 0.00 0.00 35 1011.2
20260508185603 78 232 3.5 6.1 0.00 0.00 0.00 37 1011.1
20260508185503 78 233 3.5 6.1 0.00 0.00 0.00 38 1011.2
20260508185403 78 235 3.5 6.1 0.00 0.00 0.00 38 1011.3
20260508185324 78 236 3.5 6.1 0.00 0.00 0.00 36 1011.2
20260508185203 78 241 2.6 5.2 0.00 0.00 0.00 37 1011.3
20260508185104 78 251 2.6 5.2 0.00 0.00 0.00 37 1011.3
20260508185003 78 251 2.6 5.2 0.00 0.00 0.00 38 1011.3
20260508184903 78 256 2.6 5.2 0.00 0.00 0.00 39 1011.3
20260508184803 78 267 2.6 5.2 0.00 0.00 0.00 38 1011.4
20260508184703 78 270 2.6 5.2 0.00 0.00 0.00 39 1011.4
20260508184604 78 271 2.6 5.2 0.00 0.00 0.00 38 1011.5
20260508184504 78 273 1.7 5.2 0.00 0.00 0.00 39 1011.4
20260508184424 78 276 1.7 5.2 0.00 0.00 0.00 39 1011.4
20260508184324 78 278 1.7 5.2 0.00 0.00 0.00 38 1011.5
20260508184204 78 271 1.7 5.2 0.00 0.00 0.00 39 1011.4
20260508184124 78 265 1.7 5.2 0.00 0.00 0.00 38 1011.4
20260508184003 78 258 1.7 5.2 0.00 0.00 0.00 39 1011.5
20260508183903 78 252 1.7 5.2 0.00 0.00 0.00 39 1011.5
20260508183803 78 238 1.7 4.3 0.00 0.00 0.00 39 1011.5
20260508183703 78 237 1.7 4.3 0.00 0.00 0.00 39 1011.5
20260508183603 78 239 1.7 4.3 0.00 0.00 0.00 39 1011.6
20260508183503 78 240 1.7 4.3 0.00 0.00 0.00 38 1011.6
20260508183403 78 239 1.7 4.3 0.00 0.00 0.00 39 1011.6
20260508183303 78 239 0.9 3.5 0.00 0.00 0.00 39 1011.7
20260508183203 78 240 0.9 3.5 0.00 0.00 0.00 38 1011.7
20260508183103 78 240 0.9 2.6 0.00 0.00 0.00 38 1011.7
20260508183003 78 241 1.7 3.5 0.00 0.00 0.00 39 1011.6
20260508182903 78 241 1.7 4.3 0.00 0.00 0.00 39 1011.7
20260508182824 78 241 1.7 4.3 0.00 0.00 0.00 39 1011.7
20260508182703 78 241 1.7 4.3 0.00 0.00 0.00 39 1011.7
20260508182603 78 241 1.7 4.3 0.00 0.00 0.00 39 1011.8
20260508182503 78 242 1.7 4.3 0.00 0.00 0.00 38 1011.7
20260508182403 78 242 1.7 4.3 0.00 0.00 0.00 37 1011.8
20260508182324 78 242 1.7 4.3 0.00 0.00 0.00 38 1011.8
20260508182203 78 242 1.7 4.3 0.00 0.00 0.00 38 1011.7
20260508182103 78 240 1.7 4.3 0.00 0.00 0.00 37 1011.8
20260508182003 78 237 1.7 4.3 0.00 0.00 0.00 38 1011.9
20260508181924 78 236 1.7 4.3 0.00 0.00 0.00 37 1011.9
20260508181803 78 232 1.7 4.3 0.00 0.00 0.00 37 1011.9
20260508181724 78 231 1.7 4.3 0.00 0.00 0.00 38 1011.9
20260508181603 78 229 1.7 4.3 0.00 0.00 0.00 38 1011.9
20260508181524 78 229 1.7 4.3 0.00 0.00 0.00 38 1011.9
20260508181403 78 225 1.7 4.3 0.00 0.00 0.00 36 1011.9
20260508181324 78 222 1.7 4.3 0.00 0.00 0.00 37 1012.0
20260508181203 78 217 0.9 3.5 0.00 0.00 0.00 36 1012.0
20260508181104 78 219 0.9 3.5 0.00 0.00 0.00 36 1012.1
20260508181003 77 223 0.9 3.5 0.00 0.00 0.00 35 1012.0
20260508180903 77 226 1.7 3.5 0.00 0.00 0.00 35 1012.0
20260508180824 77 227 1.7 3.5 0.00 0.00 0.00 35 1012.0
20260508180724 77 230 1.7 3.5 0.00 0.00 0.00 35 1012.0
20260508180624 77 233 1.7 3.5 0.00 0.00 0.00 36 1012.0
20260508180524 77 236 1.7 4.3 0.00 0.00 0.00 36 1012.0
20260508180424 77 239 2.6 4.3 0.00 0.00 0.00 36 1012.1
20260508180303 76 240 2.6 4.3 0.00 0.00 0.00 35 1012.1
20260508180203 76 240 1.7 4.3 0.00 0.00 0.00 35 1012.1
20260508180103 76 241 1.7 4.3 0.00 0.00 0.00 36 1012.1
20260508180003 76 242 1.7 4.3 0.00 0.00 0.00 35 1012.1
20260508175903 76 243 1.7 4.3 0.00 0.00 0.00 37 1012.1
20260508175803 76 241 1.7 4.3 0.00 0.00 0.00 37 1012.1
20260508175703 77 238 1.7 4.3 0.00 0.00 0.00 37 1012.1
20260508175603 77 235 1.7 4.3 0.00 0.00 0.00 37 1012.1
20260508175503 77 231 1.7 5.2 0.00 0.00 0.00 36 1012.1
20260508175403 77 234 1.7 5.2 0.00 0.00 0.00 35 1012.1
20260508175306 77 239 1.7 5.2 0.00 0.00 0.00 35 1012.1
20260508175203 76 239 1.7 5.2 0.00 0.00 0.00 35 1012.1
20260508175103 76 239 1.7 5.2 0.00 0.00 0.00 35 1012.2
20260508175003 76 238 1.7 5.2 0.00 0.00 0.00 35 1012.2
20260508174924 76 238 2.6 5.2 0.00 0.00 0.00 36 1012.1
20260508174803 76 239 2.6 5.2 0.00 0.00 0.00 35 1012.2
20260508174703 76 240 2.6 5.2 0.00 0.00 0.00 34 1012.2
20260508174603 76 241 2.6 5.2 0.00 0.00 0.00 34 1012.2
20260508174503 76 241 1.7 5.2 0.00 0.00 0.00 35 1012.2
20260508174403 77 237 1.7 5.2 0.00 0.00 0.00 34 1012.2
20260508174303 76 236 1.7 4.3 0.00 0.00 0.00 33 1012.2
20260508174203 76 234 1.7 4.3 0.00 0.00 0.00 32 1012.3
20260508174103 76 231 1.7 4.3 0.00 0.00 0.00 30 1012.3
20260508174003 76 226 1.7 4.3 0.00 0.00 0.00 28 1012.3
20260508173903 76 216 1.7 5.2 0.00 0.00 0.00 31 1012.3
20260508173803 75 205 2.6 5.2 0.00 0.00 0.00 31 1012.3
20260508173703 75 196 2.6 5.2 0.00 0.00 0.00 31 1012.3
20260508173603 75 187 2.6 5.2 0.00 0.00 0.00 31 1012.3
20260508173503 75 185 2.6 5.2 0.00 0.00 0.00 30 1012.3
20260508173424 75 183 2.6 5.2 0.00 0.00 0.00 30 1012.3
20260508173303 75 180 2.6 6.1 0.00 0.00 0.00 27 1012.3
20260508173203 74 183 2.6 6.1 0.00 0.00 0.00 25 1012.3
20260508173124 74 184 2.6 6.1 0.00 0.00 0.00 29 1012.3
20260508173025 74 185 2.6 6.1 0.00 0.00 0.00 31 1012.3
20260508172903 74 188 2.6 6.1 0.00 0.00 0.00 31 1012.3
20260508172803 74 192 2.6 6.1 0.00 0.00 0.00 30 1012.4
20260508172703 74 198 2.6 6.1 0.00 0.00 0.00 30 1012.4
20260508172603 74 201 2.6 6.1 0.00 0.00 0.00 31 1012.4
20260508172503 74 201 2.6 6.1 0.00 0.00 0.00 34 1012.4
20260508172403 74 198 2.6 6.1 0.00 0.00 0.00 33 1012.4
20260508172307 74 197 2.6 5.2 0.00 0.00 0.00 33 1012.4
20260508172203 74 198 2.6 4.3 0.00 0.00 0.00 33 1012.4
20260508172103 74 203 2.6 5.2 0.00 0.00 0.00 31 1012.4
20260508172003 74 206 2.6 5.2 0.00 0.00 0.00 32 1012.4
20260508171903 74 204 2.6 5.2 0.00 0.00 0.00 31 1012.4
20260508171803 74 202 2.6 5.2 0.00 0.00 0.00 31 1012.4
20260508171703 74 197 2.6 5.2 0.00 0.00 0.00 30 1012.4
20260508171603 74 197 2.6 5.2 0.00 0.00 0.00 30 1012.4
20260508171503 74 194 2.6 5.2 0.00 0.00 0.00 31 1012.5
20260508171403 74 193 2.6 6.1 0.00 0.00 0.00 29 1012.4
20260508171303 74 191 2.6 6.1 0.00 0.00 0.00 29 1012.5
20260508171203 74 185 2.6 6.1 0.00 0.00 0.00 31 1012.5
20260508171103 74 177 2.6 6.1 0.00 0.00 0.00 31 1012.5
20260508171003 74 178 2.6 6.1 0.00 0.00 0.00 30 1012.6
20260508170903 74 180 2.6 6.1 0.00 0.00 0.00 30 1012.6
20260508170803 74 178 2.6 6.1 0.00 0.00 0.00 31 1012.6
20260508170703 74 179 2.6 6.1 0.00 0.00 0.00 28 1012.6
20260508170603 74 176 2.6 6.1 0.00 0.00 0.00 29 1012.6
20260508170503 74 175 2.6 6.1 0.00 0.00 0.00 30 1012.6
20260508170403 73 168 2.6 5.2 0.00 0.00 0.00 30 1012.7
20260508170303 73 164 2.6 5.2 0.00 0.00 0.00 30 1012.7
20260508170203 73 163 2.6 5.2 0.00 0.00 0.00 30 1012.6
20260508170103 73 161 2.6 5.2 0.00 0.00 0.00 30 1012.6
20260508170003 73 153 2.6 5.2 0.00 0.00 0.00 31 1012.7
20260508165924 73 149 2.6 5.2 0.00 0.00 0.00 31 1012.7
20260508165824 73 149 2.6 5.2 0.00 0.00 0.00 27 1012.6
20260508165703 73 149 2.6 5.2 0.00 0.00 0.00 27 1012.6
20260508165603 73 150 2.6 5.2 0.00 0.00 0.00 28 1012.6
20260508165503 73 151 2.6 5.2 0.00 0.00 0.00 30 1012.7
20260508165403 73 157 2.6 5.2 0.00 0.00 0.00 29 1012.6
20260508165306 73 161 2.6 5.2 0.00 0.00 0.00 32 1012.7
20260508165224 73 161 2.6 5.2 0.00 0.00 0.00 31 1012.7
20260508165103 73 161 1.7 5.2 0.00 0.00 0.00 31 1012.8
20260508165004 73 162 1.7 5.2 0.00 0.00 0.00 31 1012.7
20260508164903 73 162 1.7 5.2 0.00 0.00 0.00 32 1012.7
20260508164803 73 161 1.7 5.2 0.00 0.00 0.00 32 1012.6
20260508164703 73 160 1.7 5.2 0.00 0.00 0.00 31 1012.7
20260508164603 73 158 1.7 5.2 0.00 0.00 0.00 29 1012.6
20260508164503 73 156 1.7 4.3 0.00 0.00 0.00 30 1012.7
20260508164403 73 150 1.7 4.3 0.00 0.00 0.00 31 1012.7
20260508164303 73 148 1.7 4.3 0.00 0.00 0.00 29 1012.8
20260508164224 72 149 1.7 4.3 0.00 0.00 0.00 29 1012.9
20260508164103 72 150 1.7 4.3 0.00 0.00 0.00 30 1012.9
20260508164024 72 150 1.7 4.3 0.00 0.00 0.00 30 1012.9
20260508163903 72 150 1.7 4.3 0.00 0.00 0.00 29 1012.9
20260508163803 72 151 1.7 4.3 0.00 0.00 0.00 28 1012.9
20260508163703 72 151 1.7 4.3 0.00 0.00 0.00 27 1012.9
20260508163624 72 152 1.7 4.3 0.00 0.00 0.00 27 1012.9
20260508163503 72 152 1.7 4.3 0.00 0.00 0.00 29 1012.9
20260508163403 72 152 1.7 4.3 0.00 0.00 0.00 28 1012.9
20260508163324 72 151 1.7 4.3 0.00 0.00 0.00 29 1013.0
20260508163203 72 151 1.7 4.3 0.00 0.00 0.00 29 1013.0
20260508163124 72 149 1.7 4.3 0.00 0.00 0.00 30 1013.1
20260508163003 72 148 0.9 3.5 0.00 0.00 0.00 30 1013.1
20260508162903 72 147 0.9 3.5 0.00 0.00 0.00 29 1013.1
20260508162803 72 146 0.9 3.5 0.00 0.00 0.00 31 1013.2
20260508162703 72 142 0.9 3.5 0.00 0.00 0.00 30 1013.2
20260508162624 72 141 0.9 3.5 0.00 0.00 0.00 30 1013.2
20260508162524 72 137 0.9 3.5 0.00 0.00 0.00 30 1013.2
20260508162424 72 137 0.9 3.5 0.00 0.00 0.00 31 1013.2
20260508162306 72 132 0.9 3.5 0.00 0.00 0.00 29 1013.2
20260508162224 72 128 0.9 3.5 0.00 0.00 0.00 27 1013.2
20260508162103 72 124 0.9 1.7 0.00 0.00 0.00 28 1013.3
20260508162003 72 124 0.9 1.7 0.00 0.00 0.00 28 1013.3
20260508161903 72 124 0.9 1.7 0.00 0.00 0.00 28 1013.3
20260508161803 72 124 0.9 1.7 0.00 0.00 0.00 27 1013.3
20260508161704 72 124 0.9 1.7 0.00 0.00 0.00 29 1013.3
20260508161604 72 124 0.9 1.7 0.00 0.00 0.00 29 1013.3
20260508161503 72 123 0.9 2.6 0.00 0.00 0.00 29 1013.3
20260508161424 72 122 0.9 2.6 0.00 0.00 0.00 30 1013.3
20260508161303 72 120 0.9 2.6 0.00 0.00 0.00 29 1013.3
20260508161203 72 118 0.9 2.6 0.00 0.00 0.00 28 1013.3
20260508161124 72 118 0.9 2.6 0.00 0.00 0.00 27 1013.3
20260508161003 72 116 1.7 2.6 0.00 0.00 0.00 30 1013.4
20260508160903 72 115 1.7 2.6 0.00 0.00 0.00 31 1013.4
20260508160803 72 113 1.7 2.6 0.00 0.00 0.00 31 1013.4
20260508160703 72 112 1.7 2.6 0.00 0.00 0.00 31 1013.4
20260508160603 72 111 0.9 2.6 0.00 0.00 0.00 31 1013.4
20260508160503 72 109 0.9 2.6 0.00 0.00 0.00 30 1013.4
20260508160403 72 109 0.9 2.6 0.00 0.00 0.00 30 1013.5
20260508160324 72 110 0.9 2.6 0.00 0.00 0.00 30 1013.5
20260508160203 72 111 0.9 2.6 0.00 0.00 0.00 28 1013.5
20260508160103 72 113 0.9 2.6 0.00 0.00 0.00 29 1013.5
20260508160003 72 116 0.9 2.6 0.00 0.00 0.00 29 1013.5
20260508155924 72 119 0.9 2.6 0.00 0.00 0.00 29 1013.5
20260508155803 72 128 0.9 2.6 0.00 0.00 0.00 29 1013.5
20260508155703 72 132 1.7 3.5 0.00 0.00 0.00 29 1013.5
20260508155603 72 143 1.7 3.5 0.00 0.00 0.00 28 1013.5
20260508155524 72 144 1.7 3.5 0.00 0.00 0.00 28 1013.5
20260508155424 72 151 1.7 3.5 0.00 0.00 0.00 31 1013.5
20260508155306 72 161 0.9 3.5 0.00 0.00 0.00 28 1013.5
20260508155203 72 169 0.9 3.5 0.00 0.00 0.00 31 1013.5
20260508155103 72 175 0.9 3.5 0.00 0.00 0.00 33 1013.4
20260508155003 72 183 0.9 3.5 0.00 0.00 0.00 33 1013.4
20260508154903 72 190 0.9 3.5 0.00 0.00 0.00 32 1013.4
20260508154803 73 199 0.9 3.5 0.00 0.00 0.00 31 1013.3
20260508154703 73 215 0.9 3.5 0.00 0.00 0.00 30 1013.3
20260508154603 73 217 0.9 1.7 0.00 0.00 0.00 29 1013.3
20260508154503 72 217 0.9 1.7 0.00 0.00 0.00 29 1013.3
20260508154424 72 217 0.9 1.7 0.00 0.00 0.00 26 1013.4
20260508154324 72 217 0.9 1.7 0.00 0.00 0.00 25 1013.4
20260508154203 72 217 0.9 1.7 0.00 0.00 0.00 23 1013.4
20260508154103 71 217 0.9 1.7 0.00 0.00 0.00 22 1013.5
20260508154003 71 217 0.0 1.7 0.00 0.00 0.00 22 1013.4
20260508153924 71 217 0.0 1.7 0.00 0.00 0.00 23 1013.4
20260508153803 71 217 0.0 1.7 0.00 0.00 0.00 19 1013.5
20260508153703 71 217 0.0 1.7 0.00 0.00 0.00 17 1013.5
20260508153603 70 0 0.0 0.9 0.00 0.00 0.00 15 1013.5
20260508153503 70 0 0.0 0.0 0.00 0.00 0.00 17 1013.5
20260508153403 70 0 0.0 0.0 0.00 0.00 0.00 19 1013.5
20260508153324 70 0 0.0 0.0 0.00 0.00 0.00 17 1013.5
20260508153203 70 0 0.0 0.0 0.00 0.00 0.00 14 1013.5
20260508153103 70 0 0.0 0.0 0.00 0.00 0.00 15 1013.5
20260508153003 70 0 0.0 0.0 0.00 0.00 0.00 15 1013.4
20260508152924 70 0 0.0 0.0 0.00 0.00 0.00 13 1013.5
20260508152803 69 0 0.0 0.0 0.00 0.00 0.00 12 1013.4
20260508152703 69 0 0.0 0.0 0.00 0.00 0.00 18 1013.5
20260508152603 69 0 0.0 0.0 0.00 0.00 0.00 16 1013.5
20260508152503 69 0 0.0 0.0 0.00 0.00 0.00 16 1013.5
20260508152403 69 0 0.0 0.0 0.00 0.00 0.00 16 1013.5
20260508152306 69 0 0.0 0.0 0.00 0.00 0.00 16 1013.6
20260508152203 69 0 0.0 0.0 0.00 0.00 0.00 16 1013.5
20260508152124 69 0 0.0 0.0 0.00 0.00 0.00 15 1013.6
20260508152003 69 0 0.0 0.0 0.00 0.00 0.00 15 1013.6
20260508151903 69 0 0.0 0.0 0.00 0.00 0.00 13 1013.6
20260508151803 69 0 0.0 0.0 0.00 0.00 0.00 13 1013.6
20260508151703 69 0 0.0 0.0 0.00 0.00 0.00 12 1013.6
20260508151603 69 0 0.0 0.0 0.00 0.00 0.00 11 1013.6
20260508151503 68 222 0.0 1.7 0.00 0.00 0.00 13 1013.6
20260508151403 68 222 0.0 1.7 0.00 0.00 0.00 14 1013.6
20260508151303 68 223 0.9 2.6 0.00 0.00 0.00 13 1013.7
20260508151203 68 223 0.9 2.6 0.00 0.00 0.00 14 1013.7
20260508151124 68 223 0.9 2.6 0.00 0.00 0.00 13 1013.7
20260508151003 68 224 0.9 2.6 0.00 0.00 0.00 13 1013.8
20260508150924 68 224 0.9 2.6 0.00 0.00 0.00 12 1013.8
20260508150804 68 225 0.9 3.5 0.00 0.00 0.00 11 1013.8
20260508150703 68 225 0.9 3.5 0.00 0.00 0.00 10 1013.8
20260508150603 68 225 1.7 3.5 0.00 0.00 0.00 9 1013.8
20260508150503 68 225 0.9 3.5 0.00 0.00 0.00 8 1013.6
20260508150403 68 225 1.7 3.5 0.00 0.00 0.00 8 1013.7
20260508150303 68 226 1.7 3.5 0.00 0.00 0.00 6 1013.7
20260508150203 68 226 1.7 3.5 0.00 0.00 0.00 9 1013.7
20260508150103 68 226 1.7 3.5 0.00 0.00 0.00 10 1013.7
20260508150004 68 226 1.7 3.5 0.00 0.00 0.00 11 1013.8
20260508145903 68 226 1.7 3.5 0.00 0.00 0.00 11 1013.8
20260508145803 68 226 0.9 2.6 0.00 0.00 0.00 12 1013.8
20260508145703 68 226 0.9 3.5 0.00 0.00 0.00 12 1013.8
20260508145604 68 226 1.7 3.5 0.00 0.00 0.00 12 1013.8
20260508145503 68 227 1.7 3.5 0.00 0.00 0.00 12 1013.9
20260508145403 68 227 1.7 3.5 0.00 0.00 0.00 8 1013.8
20260508145306 68 228 1.7 3.5 0.00 0.00 0.00 6 1013.8
20260508145203 68 229 1.7 3.5 0.00 0.00 0.00 6 1013.6
20260508145103 67 230 1.7 3.5 0.00 0.00 0.00 5 1013.6
20260508145003 67 231 1.7 3.5 0.00 0.00 0.00 4 1013.6
20260508144903 67 233 1.7 3.5 0.00 0.00 0.00 6 1013.6
20260508144803 67 234 1.7 4.3 0.00 0.00 0.00 8 1013.5
20260508144724 67 236 1.7 4.3 0.00 0.00 0.00 7 1013.6
20260508144603 67 238 1.7 4.3 0.00 0.00 0.00 5 1013.6
20260508144503 67 241 1.7 4.3 0.00 0.00 0.00 5 1013.6
20260508144424 67 242 1.7 4.3 0.00 0.00 0.00 5 1013.5
20260508144303 67 243 1.7 4.3 0.00 0.00 0.00 6 1013.6
20260508144203 67 245 1.7 4.3 0.00 0.00 0.00 4 1013.5
20260508144124 67 246 1.7 4.3 0.00 0.00 0.00 5 1013.5
20260508144024 67 247 1.7 4.3 0.00 0.00 0.00 2 1013.5
20260508143903 67 250 1.7 4.3 0.00 0.00 0.00 1 1013.5
20260508143803 67 250 1.7 4.3 0.00 0.00 0.00 1 1013.4
20260508143703 66 250 1.7 4.3 0.00 0.00 0.00 1 1013.4
20260508143624 66 250 1.7 4.3 0.00 0.00 0.00 1 1013.4
20260508143503 66 250 2.6 4.3 0.00 0.00 0.00 1 1013.4
20260508143403 66 251 2.6 4.3 0.00 0.00 0.00 1 1013.5
20260508143303 66 251 2.6 4.3 0.00 0.00 0.00 1 1013.5
20260508143203 66 252 2.6 4.3 0.00 0.00 0.00 1 1013.5
20260508143103 66 253 1.7 4.3 0.00 0.00 0.00 1 1013.6
20260508143003 66 254 1.7 4.3 0.00 0.00 0.00 1 1013.6
20260508142903 66 256 1.7 4.3 0.00 0.00 0.00 1 1013.6
20260508142803 66 257 1.7 4.3 0.00 0.00 0.00 1 1013.6
20260508142703 66 259 1.7 4.3 0.00 0.00 0.00 1 1013.6
20260508142603 66 261 1.7 4.3 0.00 0.00 0.00 1 1013.6
20260508142524 66 264 1.7 3.5 0.00 0.00 0.00 1 1013.6
20260508142404 66 267 1.7 3.5 0.00 0.00 0.00 1 1013.7
20260508142306 66 266 1.7 4.3 0.00 0.00 0.00 1 1013.7
20260508142203 66 259 1.7 4.3 0.00 0.00 0.00 1 1013.8
20260508142103 66 256 1.7 4.3 0.00 0.00 0.00 1 1013.8
20260508142003 66 251 1.7 4.3 0.00 0.00 0.00 1 1013.8
20260508141903 66 246 1.7 4.3 0.00 0.00 0.00 1 1013.8
20260508141803 66 241 1.7 4.3 0.00 0.00 0.00 1 1013.8
20260508141703 66 234 1.7 4.3 0.00 0.00 0.00 1 1013.8
20260508141603 66 229 1.7 4.3 0.00 0.00 0.00 1 1013.8
20260508141503 65 225 1.7 4.3 0.00 0.00 0.00 1 1013.8
20260508141403 65 220 1.7 4.3 0.00 0.00 0.00 1 1013.9
20260508141303 65 214 1.7 3.5 0.00 0.00 0.00 1 1013.9
20260508141203 65 214 1.7 3.5 0.00 0.00 0.00 1 1013.9
20260508141124 65 214 1.7 3.5 0.00 0.00 0.00 1 1013.8
20260508141024 65 214 1.7 3.5 0.00 0.00 0.00 1 1013.9
20260508140903 65 214 1.7 3.5 0.00 0.00 0.00 1 1013.8
20260508140824 65 214 1.7 3.5 0.00 0.00 0.00 1 1013.9
20260508140703 65 214 1.7 3.5 0.00 0.00 0.00 1 1013.8
20260508140603 65 214 1.7 3.5 0.00 0.00 0.00 1 1013.8
20260508140503 65 212 1.7 3.5 0.00 0.00 0.00 1 1013.9
20260508140403 65 209 1.7 3.5 0.00 0.00 0.00 1 1013.9
20260508140303 65 208 1.7 3.5 0.00 0.00 0.00 1 1013.9
20260508140203 65 205 1.7 3.5 0.00 0.00 0.00 1 1013.8
20260508140103 65 203 0.9 3.5 0.00 0.00 0.00 1 1013.8
20260508140004 65 202 1.7 3.5 0.00 0.00 0.00 1 1013.8
20260508135903 65 199 1.7 3.5 0.00 0.00 0.00 1 1013.9
20260508135803 65 198 1.7 3.5 0.00 0.00 0.00 1 1013.9
20260508135703 65 196 1.7 3.5 0.00 0.00 0.00 1 1013.9
20260508135603 65 193 1.7 3.5 0.00 0.00 0.00 1 1014.0
20260508135503 65 191 0.9 2.6 0.00 0.00 0.00 1 1014.1
20260508135403 65 191 0.9 2.6 0.00 0.00 0.00 1 1014.1
20260508135306 65 191 0.9 2.6 0.00 0.00 0.00 1 1014.1
20260508135224 65 191 1.7 2.6 0.00 0.00 0.00 1 1014.1
20260508135103 65 191 1.7 2.6 0.00 0.00 0.00 1 1014.2
20260508135003 64 191 1.7 3.5 0.00 0.00 0.00 1 1014.2
20260508134903 65 191 1.7 3.5 0.00 0.00 0.00 1 1014.2
20260508134803 65 191 1.7 3.5 0.00 0.00 0.00 1 1014.2
20260508134703 65 191 1.7 3.5 0.00 0.00 0.00 1 1014.2
20260508134603 65 191 1.7 3.5 0.00 0.00 0.00 1 1014.2
20260508134524 65 191 1.7 3.5 0.00 0.00 0.00 1 1014.2
20260508134403 64 191 1.7 3.5 0.00 0.00 0.00 1 1014.2
20260508134303 64 191 1.7 3.5 0.00 0.00 0.00 1 1014.2
20260508134203 64 189 1.7 4.3 0.00 0.00 0.00 1 1014.2
20260508134103 64 186 1.7 4.3 0.00 0.00 0.00 1 1014.2
20260508134003 64 184 1.7 4.3 0.00 0.00 0.00 1 1014.2
20260508133903 64 181 1.7 4.3 0.00 0.00 0.00 1 1014.2
20260508133824 64 179 1.7 4.3 0.00 0.00 0.00 1 1014.1
20260508133703 64 177 1.7 4.3 0.00 0.00 0.00 1 1014.1
20260508133624 64 176 1.7 4.3 0.00 0.00 0.00 1 1014.1
20260508133524 64 174 1.7 4.3 0.00 0.00 0.00 1 1014.2
20260508133403 64 171 1.7 4.3 0.00 0.00 0.00 1 1014.2
20260508133303 64 168 1.7 4.3 0.00 0.00 0.00 1 1014.2
20260508133203 64 165 1.7 3.5 0.00 0.00 0.00 1 1014.2
20260508133103 64 165 1.7 3.5 0.00 0.00 0.00 1 1014.2
20260508133003 64 164 1.7 3.5 0.00 0.00 0.00 1 1014.2
20260508132903 64 164 1.7 3.5 0.00 0.00 0.00 1 1014.2
20260508132803 64 163 1.7 3.5 0.00 0.00 0.00 1 1014.1
20260508132703 64 163 1.7 3.5 0.00 0.00 0.00 1 1014.1
20260508132603 64 162 1.7 3.5 0.00 0.00 0.00 1 1014.1
20260508132524 64 162 1.7 3.5 0.00 0.00 0.00 1 1014.1
20260508132403 64 161 1.7 3.5 0.00 0.00 0.00 1 1014.0
20260508132306 64 161 1.7 3.5 0.00 0.00 0.00 1 1014.0
20260508132203 64 160 1.7 3.5 0.00 0.00 0.00 1 1014.1
20260508132103 64 159 1.7 3.5 0.00 0.00 0.00 1 1014.0
20260508132003 64 159 1.7 3.5 0.00 0.00 0.00 1 1014.0
20260508131924 64 158 1.7 3.5 0.00 0.00 0.00 1 1014.0
20260508131803 64 158 1.7 3.5 0.00 0.00 0.00 1 1014.0
20260508131703 64 158 1.7 3.5 0.00 0.00 0.00 1 1014.0
20260508131624 64 158 1.7 3.5 0.00 0.00 0.00 1 1014.1
20260508131503 64 159 0.9 2.6 0.00 0.00 0.00 1 1014.1
20260508131403 64 161 1.7 3.5 0.00 0.00 0.00 1 1014.1
20260508131303 64 162 1.7 3.5 0.00 0.00 0.00 1 1014.1
20260508131203 64 163 1.7 3.5 0.00 0.00 0.00 1 1014.1
20260508131103 64 164 1.7 3.5 0.00 0.00 0.00 1 1014.1
20260508131003 63 164 1.7 3.5 0.00 0.00 0.00 1 1014.1
20260508130903 63 166 1.7 4.3 0.00 0.00 0.00 1 1014.1
20260508130803 63 167 1.7 4.3 0.00 0.00 0.00 1 1014.1
20260508130703 63 170 1.7 5.2 0.00 0.00 0.00 1 1014.0
20260508130624 63 169 1.7 5.2 0.00 0.00 0.00 1 1014.0
20260508130503 63 167 1.7 5.2 0.00 0.00 0.00 1 1014.0
20260508130403 63 165 1.7 5.2 0.00 0.00 0.00 1 1013.9
20260508130303 63 168 1.7 5.2 0.00 0.00 0.00 1 1013.9
20260508130203 63 170 1.7 5.2 0.00 0.00 0.00 1 1013.9
20260508130103 63 172 2.6 5.2 0.00 0.00 0.00 1 1013.9
20260508130003 63 174 2.6 5.2 0.00 0.00 0.00 1 1013.9
20260508125903 63 175 1.7 5.2 0.00 0.00 0.00 1 1013.9
20260508125824 63 175 1.7 5.2 0.00 0.00 0.00 1 1014.0
20260508125703 63 174 1.7 5.2 0.00 0.00 0.00 1 1014.0
20260508125624 63 176 1.7 5.2 0.00 0.00 0.00 1 1014.1
20260508125503 63 178 1.7 5.2 0.00 0.00 0.00 1 1014.1
20260508125403 63 180 1.7 5.2 0.00 0.00 0.00 1 1014.1
20260508125306 63 178 1.7 5.2 0.00 0.00 0.00 1 1014.2
20260508125224 63 177 1.7 5.2 0.00 0.00 0.00 1 1014.2
20260508125103 63 178 1.7 5.2 0.00 0.00 0.00 1 1014.2
20260508125024 63 177 1.7 5.2 0.00 0.00 0.00 1 1014.2
20260508124903 63 176 1.7 5.2 0.00 0.00 0.00 1 1014.2
20260508124803 63 178 2.6 5.2 0.00 0.00 0.00 1 1014.2
20260508124703 63 176 2.6 5.2 0.00 0.00 0.00 1 1014.2
20260508124603 63 173 2.6 5.2 0.00 0.00 0.00 1 1014.2
20260508124503 63 171 2.6 5.2 0.00 0.00 0.00 1 1014.2
20260508124403 63 168 2.6 5.2 0.00 0.00 0.00 1 1014.1
20260508124303 63 166 2.6 5.2 0.00 0.00 0.00 1 1014.1
20260508124203 63 164 2.6 5.2 0.00 0.00 0.00 1 1014.1
20260508124103 63 161 2.6 5.2 0.00 0.00 0.00 1 1014.1
20260508124024 63 158 2.6 5.2 0.00 0.00 0.00 1 1014.1
20260508123903 63 154 2.6 5.2 0.00 0.00 0.00 1 1014.1
20260508123803 63 148 1.7 4.3 0.00 0.00 0.00 1 1014.2
20260508123703 63 146 1.7 4.3 0.00 0.00 0.00 1 1014.3
20260508123603 63 147 1.7 4.3 0.00 0.00 0.00 1 1014.3
20260508123524 63 146 1.7 4.3 0.00 0.00 0.00 1 1014.3
20260508123403 63 145 1.7 2.6 0.00 0.00 0.00 1 1014.3
20260508123303 63 146 1.7 2.6 0.00 0.00 0.00 1 1014.3
20260508123224 63 147 1.7 2.6 0.00 0.00 0.00 1 1014.3
20260508123103 63 149 1.7 2.6 0.00 0.00 0.00 1 1014.4
20260508123025 63 149 1.7 2.6 0.00 0.00 0.00 1 1014.4
20260508122903 63 150 1.7 2.6 0.00 0.00 0.00 1 1014.3
20260508122803 63 151 1.7 2.6 0.00 0.00 0.00 1 1014.3
20260508122703 63 151 1.7 2.6 0.00 0.00 0.00 1 1014.3
20260508122604 63 152 1.7 2.6 0.00 0.00 0.00 1 1014.2
20260508122503 63 152 1.7 2.6 0.00 0.00 0.00 1 1014.2
20260508122403 63 151 1.7 2.6 0.00 0.00 0.00 1 1014.2
20260508122306 63 151 1.7 2.6 0.00 0.00 0.00 1 1014.3
20260508122224 63 151 1.7 2.6 0.00 0.00 0.00 1 1014.3
20260508122103 63 151 1.7 3.5 0.00 0.00 0.00 1 1014.3
20260508122003 63 150 1.7 3.5 0.00 0.00 0.00 1 1014.3
20260508121903 63 150 1.7 3.5 0.00 0.00 0.00 1 1014.3
20260508121803 63 149 1.7 3.5 0.00 0.00 0.00 1 1014.3
20260508121703 63 148 1.7 3.5 0.00 0.00 0.00 1 1014.3
20260508121603 63 148 1.7 3.5 0.00 0.00 0.00 1 1014.4
20260508121503 63 147 1.7 3.5 0.00 0.00 0.00 1 1014.4
20260508121424 63 146 1.7 5.2 0.00 0.00 0.00 1 1014.4
20260508121304 63 149 1.7 5.2 0.00 0.00 0.00 1 1014.4
20260508121203 63 152 1.7 5.2 0.00 0.00 0.00 1 1014.5
20260508121103 63 152 1.7 5.2 0.00 0.00 0.00 1 1014.5
20260508121003 63 153 1.7 5.2 0.00 0.00 0.00 1 1014.5
20260508120903 63 155 2.6 5.2 0.00 0.00 0.00 1 1014.5
20260508120803 63 156 2.6 5.2 0.00 0.00 0.00 1 1014.5
20260508120703 63 157 2.6 5.2 0.00 0.00 0.00 1 1014.5
20260508120603 63 158 2.6 5.2 0.00 0.00 0.00 1 1014.5
20260508120503 63 159 2.6 5.2 0.00 0.00 0.00 1 1014.5
20260508120403 63 159 2.6 4.3 0.00 0.00 0.00 1 1014.6
20260508120303 63 157 2.6 4.3 0.00 0.00 0.00 1 1014.6
20260508120203 63 154 2.6 4.3 0.00 0.00 0.00 1 1014.6
20260508120103 63 153 2.6 4.3 0.00 0.00 0.00 1 1014.6
20260508120003 63 154 2.6 4.3 0.00 0.00 0.00 1 1014.6
20260508115903 63 154 2.6 4.3 0.00 0.00 0.00 1 1014.6
20260508115803 63 155 2.6 4.3 0.00 0.00 0.00 1 1014.6
20260508115703 63 156 2.6 4.3 0.00 0.00 0.00 1 1014.6
20260508115603 63 158 2.6 6.1 0.00 0.00 0.00 1 1014.6
20260508115503 63 158 2.6 6.1 0.00 0.00 0.00 1 1014.7
20260508115424 63 159 2.6 6.1 0.00 0.00 0.00 1 1014.7
20260508115306 63 161 2.6 6.1 0.00 0.00 0.00 1 1014.7
20260508115203 63 163 2.6 6.1 0.00 0.00 0.00 1 1014.8
20260508115103 63 163 2.6 6.1 0.00 0.00 0.00 1 1014.8
20260508115003 63 163 2.6 6.1 0.00 0.00 0.00 1 1014.8
20260508114903 63 164 3.5 6.1 0.00 0.00 0.00 1 1014.8
20260508114803 63 163 2.6 6.1 0.00 0.00 0.00 2 1014.9
20260508114724 63 162 2.6 6.1 0.00 0.00 0.00 2 1014.9
20260508114603 63 161 2.6 5.2 0.00 0.00 0.00 1 1014.9
20260508114503 63 163 2.6 5.2 0.00 0.00 0.00 1 1014.9
20260508114424 63 163 2.6 5.2 0.00 0.00 0.00 1 1014.8
20260508114303 63 161 2.6 5.2 0.00 0.00 0.00 2 1014.8
20260508114203 63 161 2.6 5.2 0.00 0.00 0.00 2 1014.9
20260508114103 63 162 2.6 5.2 0.00 0.00 0.00 2 1014.8
20260508114003 63 164 2.6 5.2 0.00 0.00 0.00 3 1014.9
20260508113903 63 161 2.6 5.2 0.00 0.00 0.00 2 1014.8
20260508113824 63 161 2.6 5.2 0.00 0.00 0.00 2 1014.8
20260508113703 63 161 2.6 6.1 0.00 0.00 0.00 3 1014.8
20260508113624 63 160 2.6 6.1 0.00 0.00 0.00 3 1014.8
20260508113524 63 159 2.6 6.1 0.00 0.00 0.00 3 1014.8
20260508113403 63 160 2.6 6.1 0.00 0.00 0.00 3 1014.9
20260508113303 63 159 2.6 6.1 0.00 0.00 0.00 3 1014.8
20260508113203 63 157 2.6 6.1 0.00 0.00 0.00 3 1014.9
20260508113124 63 156 2.6 6.1 0.00 0.00 0.00 3 1014.8
20260508113004 63 155 2.6 6.1 0.00 0.00 0.00 3 1014.8
20260508112903 63 158 2.6 6.1 0.00 0.00 0.00 3 1014.8
20260508112803 63 160 3.5 6.1 0.00 0.00 0.00 3 1014.7
20260508112703 63 161 3.5 6.1 0.00 0.00 0.00 3 1014.7
20260508112603 63 160 2.6 6.1 0.00 0.00 0.00 3 1014.7
20260508112524 63 158 2.6 6.1 0.00 0.00 0.00 3 1014.7
20260508112403 63 156 2.6 6.1 0.00 0.00 0.00 2 1014.6
20260508112306 63 156 2.6 6.1 0.00 0.00 0.00 2 1014.7
20260508112203 63 156 2.6 6.1 0.00 0.00 0.00 3 1014.6
20260508112104 63 159 2.6 6.1 0.00 0.00 0.00 4 1014.6
20260508112003 63 159 2.6 6.1 0.00 0.00 0.00 4 1014.6
20260508111903 63 158 2.6 6.1 0.00 0.00 0.00 4 1014.6
20260508111803 63 157 2.6 6.1 0.00 0.00 0.00 3 1014.7
20260508111724 63 158 2.6 4.3 0.00 0.00 0.00 3 1014.6
20260508111604 63 163 2.6 4.3 0.00 0.00 0.00 3 1014.7
20260508111504 63 167 2.6 5.2 0.00 0.00 0.00 3 1014.6
20260508111404 63 171 2.6 5.2 0.00 0.00 0.00 3 1014.6
20260508111304 63 172 2.6 5.2 0.00 0.00 0.00 4 1014.6
20260508111205 63 175 2.6 5.2 0.00 0.00 0.00 3 1014.5
20260508111105 63 175 2.6 5.2 0.00 0.00 0.00 4 1014.5
20260508111025 63 176 2.6 5.2 0.00 0.00 0.00 4 1014.4
20260508110925 63 176 2.6 5.2 0.00 0.00 0.00 3 1014.4
20260508110804 63 177 2.6 5.2 0.00 0.00 0.00 4 1014.3
20260508110704 63 175 2.6 5.2 0.00 0.00 0.00 5 1014.3
20260508110604 63 173 2.6 5.2 0.00 0.00 0.00 5 1014.3
20260508110505 63 173 2.6 4.3 0.00 0.00 0.00 4 1014.3
20260508110404 63 170 1.7 3.5 0.00 0.00 0.00 4 1014.3
20260508110304 63 172 1.7 3.5 0.00 0.00 0.00 4 1014.3
20260508110204 63 173 1.7 3.5 0.00 0.00 0.00 5 1014.4
20260508110104 63 174 2.6 4.3 0.00 0.00 0.00 5 1014.4
20260508110025 63 173 2.6 5.2 0.00 0.00 0.00 5 1014.4
20260508105904 63 172 2.6 7.0 0.00 0.00 0.00 6 1014.4
20260508105804 63 171 2.6 7.0 0.00 0.00 0.00 6 1014.4
20260508105704 63 172 2.6 7.0 0.00 0.00 0.00 5 1014.5
20260508105604 63 171 2.6 7.0 0.00 0.00 0.00 6 1014.5
20260508105504 63 167 2.6 7.0 0.00 0.00 0.00 5 1014.5
20260508105404 63 166 2.6 7.0 0.00 0.00 0.00 6 1014.4
20260508105325 63 167 3.5 7.0 0.00 0.00 0.00 6 1014.5
20260508105225 63 167 3.5 7.0 0.00 0.00 0.00 7 1014.4
20260508105104 63 166 3.5 7.0 0.00 0.00 0.00 6 1014.4
20260508105004 63 165 3.5 7.0 0.00 0.00 0.00 7 1014.4
20260508104904 63 166 3.5 7.0 0.00 0.00 0.00 6 1014.4
20260508104804 63 164 3.5 7.0 0.00 0.00 0.00 7 1014.4
20260508104705 63 164 2.6 7.0 0.00 0.00 0.00 6 1014.5
20260508104605 63 166 2.6 7.0 0.00 0.00 0.00 6 1014.4
20260508104504 63 169 2.6 7.0 0.00 0.00 0.00 7 1014.5
20260508104405 63 168 2.6 7.0 0.00 0.00 0.00 7 1014.4
20260508104325 63 167 2.6 7.0 0.00 0.00 0.00 7 1014.4
20260508104204 63 165 2.6 7.0 0.00 0.00 0.00 8 1014.3
20260508104104 63 166 3.5 7.0 0.00 0.00 0.00 7 1014.3
20260508104004 63 168 3.5 7.0 0.00 0.00 0.00 7 1014.3
20260508103904 63 168 3.5 7.0 0.00 0.00 0.00 7 1014.3
20260508103804 63 172 3.5 7.0 0.00 0.00 0.00 7 1014.2
20260508103704 63 170 3.5 7.0 0.00 0.00 0.00 7 1014.3
20260508103604 63 170 3.5 7.0 0.00 0.00 0.00 7 1014.2
20260508103526 63 167 3.5 7.0 0.00 0.00 0.00 7 1014.2
20260508103404 63 168 3.5 7.0 0.00 0.00 0.00 7 1014.3
20260508103326 63 167 3.5 7.0 0.00 0.00 0.00 8 1014.3
20260508103204 63 167 3.5 7.0 0.00 0.00 0.00 8 1014.3
20260508103104 63 167 3.5 7.0 0.00 0.00 0.00 8 1014.3
20260508103004 63 166 3.5 7.0 0.00 0.00 0.00 8 1014.3
20260508102904 63 164 3.5 7.0 0.00 0.00 0.00 8 1014.3
20260508102804 63 163 3.5 7.0 0.00 0.00 0.00 8 1014.4
20260508102704 63 164 3.5 7.0 0.00 0.00 0.00 8 1014.3
20260508102625 63 163 3.5 7.0 0.00 0.00 0.00 7 1014.4
20260508102504 63 164 4.3 7.8 0.00 0.00 0.00 7 1014.4
20260508102404 63 165 4.3 7.8 0.00 0.00 0.00 7 1014.4
20260508102306 63 166 4.3 7.8 0.00 0.00 0.00 8 1014.4
20260508102226 63 166 4.3 7.8 0.00 0.00 0.00 8 1014.4
20260508102104 63 167 4.3 7.8 0.00 0.00 0.00 8 1014.5
20260508102026 63 167 4.3 7.8 0.00 0.00 0.00 8 1014.5
20260508101904 63 167 3.5 7.8 0.00 0.00 0.00 8 1014.6
20260508101804 63 168 4.3 7.8 0.00 0.00 0.00 8 1014.6
20260508101725 63 167 3.5 7.8 0.00 0.00 0.00 8 1014.6
20260508101604 63 168 3.5 7.8 0.00 0.00 0.00 8 1014.6
20260508101504 63 169 3.5 7.0 0.00 0.00 0.00 8 1014.7
20260508101425 63 166 3.5 7.8 0.00 0.00 0.00 9 1014.7
20260508101304 63 166 4.3 7.8 0.00 0.00 0.00 9 1014.7
20260508101204 63 165 4.3 7.8 0.00 0.00 0.00 9 1014.8
20260508101104 63 164 4.3 7.8 0.00 0.00 0.00 10 1014.8
20260508101026 63 164 4.3 7.8 0.00 0.00 0.00 10 1014.8
20260508100904 63 165 4.3 7.8 0.00 0.00 0.00 10 1014.8
20260508100804 63 163 4.3 7.8 0.00 0.00 0.00 10 1014.8
20260508100704 63 163 4.3 7.8 0.00 0.00 0.00 11 1014.9
20260508100604 63 162 3.5 7.8 0.00 0.00 0.00 11 1014.9
20260508100504 63 159 3.5 7.8 0.00 0.00 0.00 11 1014.9
20260508100404 63 159 3.5 7.0 0.00 0.00 0.00 11 1014.8
20260508100304 63 158 3.5 7.0 0.00 0.00 0.00 11 1014.8
20260508100204 63 156 3.5 7.0 0.00 0.00 0.00 11 1014.7
20260508100104 63 154 2.6 6.1 0.00 0.00 0.00 11 1014.6
20260508100004 63 152 2.6 6.1 0.00 0.00 0.00 11 1014.6
20260508095925 63 149 2.6 5.2 0.00 0.00 0.00 10 1014.7
20260508095804 63 147 2.6 4.3 0.00 0.00 0.00 11 1014.8
20260508095704 63 145 1.7 4.3 0.00 0.00 0.00 10 1014.9
20260508095625 63 144 2.6 4.3 0.00 0.00 0.00 11 1014.9
20260508095504 63 145 2.6 4.3 0.00 0.00 0.00 11 1015.0
20260508095404 63 146 2.6 4.3 0.00 0.00 0.00 10 1014.9
20260508095306 63 146 1.7 4.3 0.00 0.00 0.00 10 1015.0
20260508095204 63 146 1.7 4.3 0.00 0.00 0.00 9 1015.0
20260508095104 63 146 1.7 4.3 0.00 0.00 0.00 9 1015.0
20260508095004 63 146 1.7 4.3 0.00 0.00 0.00 9 1015.0
20260508094905 63 146 1.7 4.3 0.00 0.00 0.00 9 1015.0
20260508094804 63 146 1.7 4.3 0.00 0.00 0.00 10 1015.0
20260508094725 63 146 1.7 4.3 0.00 0.00 0.00 9 1015.0
20260508094604 63 147 1.7 4.3 0.00 0.00 0.00 10 1015.0
20260508094525 63 146 1.7 4.3 0.00 0.00 0.00 10 1015.0
20260508094404 63 145 0.9 3.5 0.00 0.00 0.00 9 1015.0
20260508094326 63 145 0.9 3.5 0.00 0.00 0.00 9 1015.0
20260508094204 63 144 0.9 3.5 0.00 0.00 0.00 9 1015.0
20260508094104 63 144 0.9 3.5 0.00 0.00 0.00 10 1015.0
20260508094005 63 144 0.9 3.5 0.00 0.00 0.00 9 1015.0
20260508093904 63 144 1.7 3.5 0.00 0.00 0.00 9 1015.0
20260508093804 63 145 1.7 3.5 0.00 0.00 0.00 9 1015.0
20260508093725 63 145 1.7 3.5 0.00 0.00 0.00 9 1015.0
20260508093625 63 145 1.7 3.5 0.00 0.00 0.00 9 1015.0
20260508093504 63 146 1.7 3.5 0.00 0.00 0.00 8 1014.9
20260508093404 63 147 1.7 3.5 0.00 0.00 0.00 8 1014.9
20260508093304 63 147 1.7 3.5 0.00 0.00 0.00 8 1014.9
20260508093204 63 148 1.7 3.5 0.00 0.00 0.00 8 1015.0
20260508093125 63 148 1.7 3.5 0.00 0.00 0.00 9 1015.0
20260508093004 63 149 1.7 3.5 0.00 0.00 0.00 9 1014.9
20260508092925 63 149 1.7 3.5 0.00 0.00 0.00 8 1014.9
20260508092804 63 149 1.7 3.5 0.00 0.00 0.00 8 1014.8
20260508092725 63 150 1.7 3.5 0.00 0.00 0.00 8 1014.8
20260508092605 63 150 1.7 3.5 0.00 0.00 0.00 8 1014.8
20260508092504 63 151 1.7 3.5 0.00 0.00 0.00 8 1014.8
20260508092404 63 152 1.7 3.5 0.00 0.00 0.00 8 1014.8
20260508092312 63 153 1.7 3.5 0.00 0.00 0.00 8 1014.8
20260508092225 63 154 1.7 3.5 0.00 0.00 0.00 8 1014.8
20260508092104 63 155 1.7 3.5 0.00 0.00 0.00 7 1014.6
20260508092005 63 155 1.7 3.5 0.00 0.00 0.00 8 1014.6
20260508091925 63 156 1.7 3.5 0.00 0.00 0.00 8 1014.5
20260508091804 63 155 1.7 4.3 0.00 0.00 0.00 8 1014.6
20260508091704 63 155 1.7 4.3 0.00 0.00 0.00 7 1014.5
20260508091604 63 154 1.7 4.3 0.00 0.00 0.00 7 1014.5
20260508091504 63 152 1.7 4.3 0.00 0.00 0.00 7 1014.5
20260508091425 63 151 1.7 4.3 0.00 0.00 0.00 7 1014.4
20260508091304 63 149 1.7 4.3 0.00 0.00 0.00 7 1014.4
20260508091204 63 148 1.7 4.3 0.00 0.00 0.00 7 1014.4
20260508091105 63 147 1.7 4.3 0.00 0.00 0.00 7 1014.4
20260508091025 63 145 1.7 4.3 0.00 0.00 0.00 7 1014.4
20260508090904 63 143 1.7 4.3 0.00 0.00 0.00 7 1014.4
20260508090804 63 140 1.7 3.5 0.00 0.00 0.00 6 1014.4
20260508090704 63 140 1.7 3.5 0.00 0.00 0.00 6 1014.5
20260508090605 63 139 1.7 3.5 0.00 0.00 0.00 6 1014.5
20260508090504 63 139 1.7 3.5 0.00 0.00 0.00 6 1014.6
20260508090404 63 138 1.7 3.5 0.00 0.00 0.00 6 1014.5
20260508090304 63 138 1.7 3.5 0.00 0.00 0.00 7 1014.5
20260508090204 63 138 1.7 3.5 0.00 0.00 0.00 7 1014.5
20260508090104 63 137 1.7 3.5 0.00 0.00 0.00 7 1014.4
20260508090004 63 137 1.7 3.5 0.00 0.00 0.00 7 1014.5
20260508085904 63 137 1.7 3.5 0.00 0.00 0.00 6 1014.4
20260508085804 63 138 1.7 3.5 0.00 0.00 0.00 7 1014.4
20260508085705 63 139 1.7 3.5 0.00 0.00 0.00 8 1014.4
20260508085604 63 141 1.7 3.5 0.00 0.00 0.00 8 1014.4
20260508085504 63 142 1.7 3.5 0.00 0.00 0.00 8 1014.4
20260508085404 63 145 1.7 3.5 0.00 0.00 0.00 9 1014.5
20260508085307 63 147 1.7 3.5 0.00 0.00 0.00 11 1014.5
20260508085204 63 149 1.7 4.3 0.00 0.00 0.00 11 1014.5
20260508085105 63 153 1.7 4.3 0.00 0.00 0.00 11 1014.5
20260508085004 63 155 1.7 4.3 0.00 0.00 0.00 10 1014.5
20260508084926 63 155 1.7 4.3 0.00 0.00 0.00 11 1014.5
20260508084804 63 156 1.7 4.3 0.00 0.00 0.00 12 1014.5
20260508084704 63 156 1.7 4.3 0.00 0.00 0.00 11 1014.5
20260508084604 63 156 1.7 4.3 0.00 0.00 0.00 12 1014.5
20260508084504 63 155 1.7 4.3 0.00 0.00 0.00 12 1014.5
20260508084426 63 155 1.7 4.3 0.00 0.00 0.00 12 1014.5
20260508084325 63 155 1.7 4.3 0.00 0.00 0.00 13 1014.5
20260508084204 63 155 1.7 4.3 0.00 0.00 0.00 15 1014.6
20260508084104 63 155 1.7 3.5 0.00 0.00 0.00 15 1014.6
20260508084004 63 155 1.7 3.5 0.00 0.00 0.00 15 1014.6
20260508083904 63 156 1.7 3.5 0.00 0.00 0.00 16 1014.5
20260508083825 63 156 1.7 3.5 0.00 0.00 0.00 16 1014.5
20260508083704 63 156 1.7 3.5 0.00 0.00 0.00 17 1014.5
20260508083625 63 156 1.7 3.5 0.00 0.00 0.00 17 1014.5
20260508083525 63 157 1.7 3.5 0.00 0.00 0.00 17 1014.5
20260508083404 63 156 1.7 3.5 0.00 0.00 0.00 17 1014.6
20260508083325 63 157 1.7 3.5 0.00 0.00 0.00 17 1014.6
20260508083205 63 158 1.7 3.5 0.00 0.00 0.00 17 1014.6
20260508083125 63 158 1.7 3.5 0.00 0.00 0.00 17 1014.6
20260508083025 63 158 2.6 3.5 0.00 0.00 0.00 18 1014.6
20260508082904 63 157 2.6 3.5 0.00 0.00 0.00 18 1014.6
20260508082804 63 157 2.6 3.5 0.00 0.00 0.00 19 1014.7
20260508082704 63 157 1.7 3.5 0.00 0.00 0.00 18 1014.8
20260508082604 63 157 2.6 3.5 0.00 0.00 0.00 19 1014.8
20260508082504 63 157 2.6 3.5 0.00 0.00 0.00 18 1014.7
20260508082404 63 156 1.7 3.5 0.00 0.00 0.00 19 1014.8
20260508082306 63 156 1.7 3.5 0.00 0.00 0.00 18 1014.8
20260508082204 63 157 1.7 3.5 0.00 0.00 0.00 18 1014.8
20260508082104 63 161 1.7 3.5 0.00 0.00 0.00 18 1014.8
20260508082004 63 168 1.7 5.2 0.00 0.00 0.00 18 1014.7
20260508081904 63 173 1.7 6.1 0.00 0.00 0.00 17 1014.7
20260508081804 63 177 1.7 6.1 0.00 0.00 0.00 18 1014.7
20260508081704 63 181 1.7 6.1 0.00 0.00 0.00 18 1014.7
20260508081604 63 184 1.7 6.1 0.00 0.00 0.00 18 1014.6
20260508081504 63 187 1.7 6.1 0.00 0.00 0.00 18 1014.7
20260508081404 63 191 1.7 6.1 0.00 0.00 0.00 18 1014.6
20260508081304 63 192 1.7 6.1 0.00 0.00 0.00 17 1014.6
20260508081204 63 192 1.7 6.1 0.00 0.00 0.00 17 1014.6
20260508081104 63 192 1.7 6.1 0.00 0.00 0.00 18 1014.5
20260508081004 63 189 1.7 6.1 0.00 0.00 0.00 18 1014.5
20260508080904 63 188 1.7 6.1 0.00 0.00 0.00 18 1014.4
20260508080804 63 187 1.7 6.1 0.00 0.00 0.00 18 1014.5
20260508080704 63 187 2.6 6.1 0.00 0.00 0.00 18 1014.5
20260508080604 63 189 2.6 6.1 0.00 0.00 0.00 19 1014.5
20260508080505 63 191 2.6 6.1 0.00 0.00 0.00 19 1014.5
20260508080404 63 191 2.6 6.1 0.00 0.00 0.00 19 1014.5
20260508080304 63 194 2.6 6.1 0.00 0.00 0.00 19 1014.5
20260508080204 63 193 2.6 6.1 0.00 0.00 0.00 19 1014.5
20260508080104 63 190 2.6 5.2 0.00 0.00 0.00 18 1014.5
20260508080004 63 192 2.6 5.2 0.00 0.00 0.00 18 1014.5
20260508075925 63 192 2.6 5.2 0.00 0.00 0.00 19 1014.5
20260508075804 63 190 2.6 5.2 0.00 0.00 0.00 19 1014.5
20260508075704 63 189 2.6 5.2 0.00 0.00 0.00 19 1014.5
20260508075604 63 187 2.6 5.2 0.00 0.00 0.00 19 1014.5
20260508075505 63 184 1.7 5.2 0.00 0.00 0.00 19 1014.5
20260508075404 63 183 1.7 5.2 0.00 0.00 0.00 19 1014.5
20260508075308 63 180 1.7 5.2 0.00 0.00 0.00 19 1014.6
20260508075204 63 181 1.7 5.2 0.00 0.00 0.00 19 1014.5
20260508075104 63 183 1.7 5.2 0.00 0.00 0.00 19 1014.5
20260508075004 63 181 1.7 4.3 0.00 0.00 0.00 19 1014.6
20260508074904 63 182 1.7 4.3 0.00 0.00 0.00 19 1014.5
20260508074825 63 183 0.9 4.3 0.00 0.00 0.00 19 1014.6
20260508074704 63 186 0.9 4.3 0.00 0.00 0.00 19 1014.5
20260508074604 63 188 0.9 4.3 0.00 0.00 0.00 19 1014.5
20260508074525 63 186 0.9 4.3 0.00 0.00 0.00 19 1014.4
20260508074404 63 186 0.9 4.3 0.00 0.00 0.00 19 1014.4
20260508074304 63 184 0.9 4.3 0.00 0.00 0.00 19 1014.4
20260508074225 63 184 0.9 4.3 0.00 0.00 0.00 19 1014.3
20260508074104 63 183 0.9 4.3 0.00 0.00 0.00 19 1014.4
20260508074004 63 179 0.9 4.3 0.00 0.00 0.00 19 1014.4
20260508073904 63 179 0.9 4.3 0.00 0.00 0.00 19 1014.3
20260508073804 63 184 1.7 4.3 0.00 0.00 0.00 19 1014.3
20260508073704 63 184 1.7 4.3 0.00 0.00 0.00 19 1014.4
20260508073604 63 183 0.9 4.3 0.00 0.00 0.00 19 1014.4
20260508073504 63 185 0.9 4.3 0.00 0.00 0.00 18 1014.4
20260508073404 63 185 0.9 4.3 0.00 0.00 0.00 18 1014.5
20260508073304 63 187 0.9 4.3 0.00 0.00 0.00 19 1014.4
20260508073204 63 188 0.9 4.3 0.00 0.00 0.00 19 1014.4
20260508073104 63 188 0.9 4.3 0.00 0.00 0.00 18 1014.5
20260508073004 63 191 0.9 4.3 0.00 0.00 0.00 18 1014.5
20260508072925 63 195 0.0 4.3 0.00 0.00 0.00 19 1014.5
20260508072805 63 200 0.0 4.3 0.00 0.00 0.00 18 1014.5
20260508072705 63 192 0.0 2.6 0.00 0.00 0.00 18 1014.5
20260508072604 63 192 0.0 2.6 0.00 0.00 0.00 18 1014.5
20260508072504 63 192 0.0 2.6 0.00 0.00 0.00 18 1014.4
20260508072405 63 192 0.0 2.6 0.00 0.00 0.00 18 1014.4
20260508072307 63 192 0.0 2.6 0.00 0.00 0.00 18 1014.4
20260508072204 63 0 0.0 0.0 0.00 0.00 0.00 17 1014.3
20260508072104 63 0 0.0 0.0 0.00 0.00 0.00 17 1014.3
20260508072005 63 0 0.0 0.0 0.00 0.00 0.00 16 1014.3
20260508071904 63 0 0.0 0.0 0.00 0.00 0.00 16 1014.3
20260508071804 63 0 0.0 0.0 0.00 0.00 0.00 16 1014.4
20260508071725 63 0 0.0 0.0 0.00 0.00 0.00 16 1014.4
20260508071604 63 170 0.0 2.6 0.00 0.00 0.00 16 1014.5
20260508071525 63 170 0.0 2.6 0.00 0.00 0.00 15 1014.6
20260508071404 63 170 0.0 2.6 0.00 0.00 0.00 15 1014.5
20260508071304 63 170 0.0 2.6 0.00 0.00 0.00 14 1014.6
20260508071204 63 170 0.0 2.6 0.00 0.00 0.00 14 1014.5
20260508071104 63 167 0.9 4.3 0.00 0.00 0.00 14 1014.5
20260508071004 63 166 0.9 4.3 0.00 0.00 0.00 14 1014.6
20260508070904 63 164 0.9 4.3 0.00 0.00 0.00 13 1014.7
20260508070804 63 163 0.9 4.3 0.00 0.00 0.00 13 1014.8
20260508070704 63 162 0.9 4.3 0.00 0.00 0.00 13 1014.9
20260508070604 63 161 0.9 4.3 0.00 0.00 0.00 13 1014.9
20260508070504 63 160 0.9 4.3 0.00 0.00 0.00 12 1015.0
20260508070404 63 160 0.9 4.3 0.00 0.00 0.00 12 1015.0
20260508070304 63 160 0.9 4.3 0.00 0.00 0.00 11 1015.1
20260508070204 63 156 0.0 4.3 0.00 0.00 0.00 10 1015.1
20260508070104 63 153 0.0 3.5 0.00 0.00 0.00 11 1015.1
20260508070005 63 152 0.0 3.5 0.00 0.00 0.00 10 1015.1
20260508065904 63 152 0.0 1.7 0.00 0.00 0.00 9 1015.1
20260508065804 63 0 0.0 0.0 0.00 0.00 0.00 10 1015.0
20260508065725 63 0 0.0 0.0 0.00 0.00 0.00 10 1015.1
20260508065604 63 0 0.0 0.0 0.00 0.00 0.00 9 1015.0
20260508065504 63 0 0.0 0.0 0.00 0.00 0.00 10 1015.0
20260508065405 63 0 0.0 0.0 0.00 0.00 0.00 10 1015.0
20260508065307 63 0 0.0 0.0 0.00 0.00 0.00 10 1015.0
20260508065204 63 0 0.0 0.0 0.00 0.00 0.00 10 1015.1
20260508065104 62 151 0.0 1.7 0.00 0.00 0.00 9 1015.1
20260508065004 63 151 0.0 2.6 0.00 0.00 0.00 8 1015.2
20260508064904 62 151 0.0 2.6 0.00 0.00 0.00 8 1015.1
20260508064825 62 151 0.0 2.6 0.00 0.00 0.00 8 1015.1
20260508064705 62 151 0.0 2.6 0.00 0.00 0.00 8 1015.1
20260508064604 62 151 0.0 2.6 0.00 0.00 0.00 7 1015.2
20260508064504 62 151 0.0 2.6 0.00 0.00 0.00 7 1015.2
20260508064404 62 151 0.0 2.6 0.00 0.00 0.00 7 1015.2
20260508064304 62 150 0.0 2.6 0.00 0.00 0.00 7 1015.2
20260508064204 62 150 0.0 2.6 0.00 0.00 0.00 7 1015.3
20260508064104 62 150 0.0 2.6 0.00 0.00 0.00 6 1015.3
20260508064004 62 150 0.0 2.6 0.00 0.00 0.00 6 1015.4
20260508063904 62 150 0.0 2.6 0.00 0.00 0.00 6 1015.4
20260508063804 62 150 0.0 2.6 0.00 0.00 0.00 5 1015.5
20260508063704 62 150 0.0 2.6 0.00 0.00 0.00 5 1015.5
20260508063604 62 150 0.0 2.6 0.00 0.00 0.00 5 1015.6
20260508063504 63 150 0.0 2.6 0.00 0.00 0.00 5 1015.6
20260508063404 62 149 0.0 2.6 0.00 0.00 0.00 5 1015.7
20260508063304 62 148 0.0 2.6 0.00 0.00 0.00 5 1015.7
20260508063204 62 146 0.0 2.6 0.00 0.00 0.00 5 1015.7
20260508063104 62 146 0.0 2.6 0.00 0.00 0.00 6 1015.7
20260508063004 62 146 0.0 2.6 0.00 0.00 0.00 5 1015.8
20260508062904 62 146 0.0 2.6 0.00 0.00 0.00 5 1015.8
20260508062804 62 146 0.0 2.6 0.00 0.00 0.00 5 1015.8
20260508062704 62 146 0.0 2.6 0.00 0.00 0.00 5 1015.9
20260508062604 62 146 0.0 2.6 0.00 0.00 0.00 4 1015.9
20260508062504 62 146 0.0 2.6 0.00 0.00 0.00 5 1015.9
20260508062404 62 146 0.0 2.6 0.00 0.00 0.00 5 1015.9
20260508062306 62 146 0.0 2.6 0.00 0.00 0.00 5 1015.9
20260508062205 62 146 0.0 0.9 0.00 0.00 0.00 4 1015.8
20260508062104 62 146 0.0 0.9 0.00 0.00 0.00 3 1015.8
20260508062004 62 146 0.0 0.9 0.00 0.00 0.00 4 1015.7
20260508061904 62 146 0.0 0.9 0.00 0.00 0.00 4 1015.6
20260508061825 62 146 0.0 0.9 0.00 0.00 0.00 5 1015.5
20260508061704 62 0 0.0 0.0 0.00 0.00 0.00 5 1015.4
20260508061604 62 0 0.0 0.0 0.00 0.00 0.00 5 1015.3
20260508061504 62 146 0.0 0.9 0.00 0.00 0.00 5 1015.4
20260508061404 62 146 0.0 0.9 0.00 0.00 0.00 6 1015.3
20260508061304 62 146 0.0 0.9 0.00 0.00 0.00 6 1015.2
20260508061204 62 146 0.0 0.9 0.00 0.00 0.00 6 1015.3
20260508061104 62 146 0.0 0.9 0.00 0.00 0.00 7 1015.2
20260508061004 62 146 0.0 0.9 0.00 0.00 0.00 7 1015.2
20260508060904 62 146 0.0 0.9 0.00 0.00 0.00 7 1015.2
20260508060804 62 146 0.0 0.9 0.00 0.00 0.00 7 1015.2
20260508060704 62 146 0.0 0.9 0.00 0.00 0.00 7 1015.2
20260508060604 62 146 0.0 0.9 0.00 0.00 0.00 7 1015.2
20260508060504 62 146 0.0 0.9 0.00 0.00 0.00 7 1015.2
20260508060404 62 146 0.0 0.9 0.00 0.00 0.00 8 1015.2
20260508060304 62 146 0.0 0.9 0.00 0.00 0.00 8 1015.2
20260508060204 62 146 0.0 0.9 0.00 0.00 0.00 8 1015.3
20260508060104 62 0 0.0 0.0 0.00 0.00 0.00 8 1015.3
20260508060005 62 0 0.0 0.0 0.00 0.00 0.00 8 1015.4
20260508055904 62 0 0.0 0.0 0.00 0.00 0.00 8 1015.4
20260508055804 62 0 0.0 0.0 0.00 0.00 0.00 8 1015.4
20260508055704 62 0 0.0 0.0 0.00 0.00 0.00 8 1015.5
20260508055604 62 0 0.0 0.0 0.00 0.00 0.00 8 1015.4
20260508055504 62 0 0.0 0.0 0.00 0.00 0.00 8 1015.4
20260508055404 62 0 0.0 0.0 0.00 0.00 0.00 9 1015.4
20260508055326 62 0 0.0 0.0 0.00 0.00 0.00 8 1015.4
20260508055204 62 0 0.0 0.0 0.00 0.00 0.00 8 1015.4
20260508055104 62 0 0.0 0.0 0.00 0.00 0.00 8 1015.4
20260508055004 62 0 0.0 0.0 0.00 0.00 0.00 9 1015.5
20260508054904 62 0 0.0 0.0 0.00 0.00 0.00 9 1015.6
20260508054804 62 0 0.0 0.0 0.00 0.00 0.00 9 1015.6
20260508054704 62 0 0.0 0.0 0.00 0.00 0.00 9 1015.7
20260508054604 62 0 0.0 0.0 0.00 0.00 0.00 10 1015.7
20260508054504 63 120 0.0 0.9 0.00 0.00 0.00 10 1015.8
20260508054404 63 120 0.0 0.9 0.00 0.00 0.00 10 1015.7
20260508054304 63 120 0.0 0.9 0.00 0.00 0.00 10 1015.7
20260508054204 63 120 0.0 0.9 0.00 0.00 0.00 11 1015.7
20260508054125 63 120 0.0 0.9 0.00 0.00 0.00 11 1015.7
20260508054004 63 120 0.0 0.9 0.00 0.00 0.00 11 1015.6
20260508053904 63 120 0.0 0.9 0.00 0.00 0.00 11 1015.6
20260508053804 63 120 0.0 0.9 0.00 0.00 0.00 12 1015.6
20260508053704 63 120 0.0 0.9 0.00 0.00 0.00 12 1015.7
20260508053625 63 120 0.0 0.9 0.00 0.00 0.00 12 1015.7
20260508053504 63 0 0.0 0.0 0.00 0.00 0.00 12 1015.7
20260508053404 63 180 0.0 4.3 0.00 0.00 0.00 13 1015.7
20260508053304 63 180 0.0 4.3 0.00 0.00 0.00 13 1015.7
20260508053204 63 180 0.0 4.3 0.00 0.00 0.00 13 1015.6
20260508053125 63 180 0.0 4.3 0.00 0.00 0.00 13 1015.4
20260508053004 63 180 0.0 4.3 0.00 0.00 0.00 13 1015.3
20260508052904 63 180 0.0 4.3 0.00 0.00 0.00 13 1015.1
20260508052804 63 180 0.0 4.3 0.00 0.00 0.00 14 1015.0
20260508052704 63 180 0.0 4.3 0.00 0.00 0.00 14 1014.8
20260508052604 63 180 0.0 4.3 0.00 0.00 0.00 14 1014.7
20260508052504 63 180 0.0 4.3 0.00 0.00 0.00 14 1014.6
20260508052404 63 0 0.0 0.0 0.00 0.00 0.00 14 1014.6
20260508052307 63 0 0.0 0.0 0.00 0.00 0.00 14 1014.6
20260508052204 63 0 0.0 0.0 0.00 0.00 0.00 14 1014.7
20260508052125 63 0 0.0 0.0 0.00 0.00 0.00 14 1014.7
20260508052004 63 0 0.0 0.0 0.00 0.00 0.00 14 1014.8
20260508051904 63 0 0.0 0.0 0.00 0.00 0.00 14 1014.8
20260508051825 63 0 0.0 0.0 0.00 0.00 0.00 14 1014.9
20260508051704 63 0 0.0 0.0 0.00 0.00 0.00 14 1014.9
20260508051626 63 0 0.0 0.0 0.00 0.00 0.00 14 1014.9
20260508051504 63 0 0.0 0.0 0.00 0.00 0.00 14 1015.0
20260508051404 63 0 0.0 0.0 0.00 0.00 0.00 14 1015.1
20260508051304 63 0 0.0 0.0 0.00 0.00 0.00 14 1015.1
20260508051204 63 0 0.0 0.0 0.00 0.00 0.00 14 1015.2
20260508051104 63 0 0.0 0.0 0.00 0.00 0.00 14 1015.3
20260508051025 63 0 0.0 0.0 0.00 0.00 0.00 14 1015.3
20260508050904 63 0 0.0 0.0 0.00 0.00 0.00 14 1015.4
20260508050804 63 0 0.0 0.0 0.00 0.00 0.00 13 1015.4
20260508050704 63 139 0.0 0.9 0.00 0.00 0.00 12 1015.5
20260508050604 63 139 0.0 0.9 0.00 0.00 0.00 12 1015.6
20260508050525 63 139 0.0 0.9 0.00 0.00 0.00 13 1015.7
20260508050404 63 139 0.0 0.9 0.00 0.00 0.00 13 1015.8
20260508050304 63 139 0.0 0.9 0.00 0.00 0.00 13 1015.9
20260508050204 63 139 0.0 0.9 0.00 0.00 0.00 13 1015.9
20260508050104 63 139 0.0 0.9 0.00 0.00 0.00 13 1016.0
20260508050004 63 139 0.0 0.9 0.00 0.00 0.00 13 1016.0
20260508045904 63 139 0.0 0.9 0.00 0.00 0.00 14 1016.0
20260508045804 63 139 0.0 0.9 0.00 0.00 0.00 14 1016.0
20260508045704 63 0 0.0 0.0 0.00 0.00 0.00 14 1016.0
20260508045604 63 0 0.0 0.0 0.00 0.00 0.00 15 1016.0
20260508045504 63 0 0.0 0.0 0.00 0.00 0.00 15 1016.0
20260508045404 63 0 0.0 0.0 0.00 0.00 0.00 16 1015.9
20260508045307 63 0 0.0 0.0 0.00 0.00 0.00 16 1015.8
20260508045204 63 0 0.0 0.0 0.00 0.00 0.00 17 1015.7
20260508045104 63 0 0.0 0.0 0.00 0.00 0.00 18 1015.5
20260508045004 63 0 0.0 0.0 0.00 0.00 0.00 18 1015.4
20260508044904 63 0 0.0 0.0 0.00 0.00 0.00 18 1015.3
20260508044804 63 0 0.0 0.0 0.00 0.00 0.00 19 1015.2
20260508044725 63 0 0.0 0.0 0.00 0.00 0.00 19 1015.1
20260508044604 63 0 0.0 0.0 0.00 0.00 0.00 19 1015.1
20260508044504 63 0 0.0 0.0 0.00 0.00 0.00 20 1015.1
20260508044404 63 0 0.0 0.0 0.00 0.00 0.00 20 1015.1
20260508044304 63 0 0.0 0.0 0.00 0.00 0.00 20 1015.1
20260508044225 63 0 0.0 0.0 0.00 0.00 0.00 20 1015.1
20260508044104 63 0 0.0 0.0 0.00 0.00 0.00 21 1015.1
20260508044004 63 0 0.0 0.0 0.00 0.00 0.00 20 1015.1
20260508043904 63 0 0.0 0.0 0.00 0.00 0.00 20 1015.1
20260508043825 63 0 0.0 0.0 0.00 0.00 0.00 20 1015.1
20260508043704 63 0 0.0 0.0 0.00 0.00 0.00 21 1015.1
20260508043604 63 0 0.0 0.0 0.00 0.00 0.00 21 1015.1
20260508043504 63 0 0.0 0.0 0.00 0.00 0.00 21 1015.1
20260508043404 63 0 0.0 0.0 0.00 0.00 0.00 21 1015.2
20260508043304 63 0 0.0 0.0 0.00 0.00 0.00 20 1015.2
20260508043204 63 0 0.0 0.0 0.00 0.00 0.00 21 1015.3
20260508043104 63 0 0.0 0.0 0.00 0.00 0.00 21 1015.4
20260508043004 63 0 0.0 0.0 0.00 0.00 0.00 21 1015.4
20260508042904 63 0 0.0 0.0 0.00 0.00 0.00 21 1015.5
20260508042805 63 0 0.0 0.0 0.00 0.00 0.00 21 1015.5
20260508042704 63 0 0.0 0.0 0.00 0.00 0.00 21 1015.5
20260508042604 63 0 0.0 0.0 0.00 0.00 0.00 21 1015.5
20260508042504 63 0 0.0 0.0 0.00 0.00 0.00 21 1015.4
20260508042404 63 0 0.0 0.0 0.00 0.00 0.00 22 1015.5
20260508042307 63 0 0.0 0.0 0.00 0.00 0.00 22 1015.5
20260508042204 63 0 0.0 0.0 0.00 0.00 0.00 22 1015.5
20260508042104 63 0 0.0 0.0 0.00 0.00 0.00 22 1015.5
20260508042004 63 0 0.0 0.0 0.00 0.00 0.00 22 1015.5
20260508041904 63 0 0.0 0.0 0.00 0.00 0.00 22 1015.7
20260508041804 63 0 0.0 0.0 0.00 0.00 0.00 22 1015.7
20260508041705 63 0 0.0 0.0 0.00 0.00 0.00 21 1015.8
20260508041604 63 0 0.0 0.0 0.00 0.00 0.00 21 1015.8
20260508041505 63 0 0.0 0.0 0.00 0.00 0.00 21 1015.8
20260508041404 63 0 0.0 0.0 0.00 0.00 0.00 21 1015.9
20260508041304 63 0 0.0 0.0 0.00 0.00 0.00 21 1015.9
20260508041204 63 0 0.0 0.0 0.00 0.00 0.00 21 1015.9
20260508041104 63 0 0.0 0.0 0.00 0.00 0.00 21 1015.9
20260508041004 63 0 0.0 0.0 0.00 0.00 0.00 21 1015.8
20260508040904 63 0 0.0 0.0 0.00 0.00 0.00 21 1015.8
20260508040804 63 0 0.0 0.0 0.00 0.00 0.00 21 1015.7
20260508040704 63 0 0.0 0.0 0.00 0.00 0.00 21 1015.7
20260508040625 63 0 0.0 0.0 0.00 0.00 0.00 21 1015.7
20260508040504 63 0 0.0 0.0 0.00 0.00 0.00 20 1015.7
20260508040425 63 0 0.0 0.0 0.00 0.00 0.00 20 1015.6
20260508040325 63 0 0.0 0.0 0.00 0.00 0.00 20 1015.6
20260508040204 63 0 0.0 0.0 0.00 0.00 0.00 20 1015.7
20260508040104 63 0 0.0 0.0 0.00 0.00 0.00 22 1015.6
20260508040005 63 0 0.0 0.0 0.00 0.00 0.00 22 1015.7
20260508035904 63 0 0.0 0.0 0.00 0.00 0.00 22 1015.7
20260508035825 63 0 0.0 0.0 0.00 0.00 0.00 22 1015.7
20260508035704 63 0 0.0 0.0 0.00 0.00 0.00 22 1015.7
20260508035604 63 0 0.0 0.0 0.00 0.00 0.00 23 1015.8
20260508035504 63 0 0.0 0.0 0.00 0.00 0.00 23 1015.8
20260508035404 63 0 0.0 0.0 0.00 0.00 0.00 24 1015.8
20260508035306 63 0 0.0 0.0 0.00 0.00 0.00 24 1015.9
20260508035204 63 0 0.0 0.0 0.00 0.00 0.00 24 1015.8
20260508035104 63 0 0.0 0.0 0.00 0.00 0.00 24 1015.9
20260508035004 63 0 0.0 0.0 0.00 0.00 0.00 24 1016.0
20260508034904 63 0 0.0 0.0 0.00 0.00 0.00 24 1016.0
20260508034804 63 0 0.0 0.0 0.00 0.00 0.00 24 1016.1
20260508034704 63 0 0.0 0.0 0.00 0.00 0.00 24 1016.2
20260508034604 63 0 0.0 0.0 0.00 0.00 0.00 24 1016.2
20260508034525 63 0 0.0 0.0 0.00 0.00 0.00 24 1016.3
20260508034404 63 0 0.0 0.0 0.00 0.00 0.00 24 1016.3
20260508034304 63 0 0.0 0.0 0.00 0.00 0.00 23 1016.4
20260508034204 63 0 0.0 0.0 0.00 0.00 0.00 22 1016.5
20260508034104 63 0 0.0 0.0 0.00 0.00 0.00 22 1016.6
20260508034004 63 0 0.0 0.0 0.00 0.00 0.00 22 1016.7
20260508033904 63 0 0.0 0.0 0.00 0.00 0.00 21 1016.7
20260508033804 63 0 0.0 0.0 0.00 0.00 0.00 21 1016.8
20260508033704 63 0 0.0 0.0 0.00 0.00 0.00 21 1016.8
20260508033604 63 0 0.0 0.0 0.00 0.00 0.00 21 1016.8
20260508033504 63 0 0.0 0.0 0.00 0.00 0.00 21 1016.7
20260508033404 63 0 0.0 0.0 0.00 0.00 0.00 21 1016.6
20260508033304 63 0 0.0 0.0 0.00 0.00 0.00 21 1016.6
20260508033204 63 0 0.0 0.0 0.00 0.00 0.00 21 1016.5
20260508033104 63 0 0.0 0.0 0.00 0.00 0.00 21 1016.5
20260508033004 63 0 0.0 0.0 0.00 0.00 0.00 21 1016.5
20260508032925 63 0 0.0 0.0 0.00 0.00 0.00 21 1016.5
20260508032804 63 0 0.0 0.0 0.00 0.00 0.00 21 1016.4
20260508032704 63 0 0.0 0.0 0.00 0.00 0.00 21 1016.4
20260508032604 63 0 0.0 0.0 0.00 0.00 0.00 22 1016.4
20260508032504 63 0 0.0 0.0 0.00 0.00 0.00 22 1016.4
20260508032404 63 0 0.0 0.0 0.00 0.00 0.00 22 1016.3
20260508032306 63 0 0.0 0.0 0.00 0.00 0.00 22 1016.3
20260508032204 63 0 0.0 0.0 0.00 0.00 0.00 22 1016.2
20260508032104 63 0 0.0 0.0 0.00 0.00 0.00 22 1016.2
20260508032004 63 0 0.0 0.0 0.00 0.00 0.00 22 1016.2
20260508031904 63 0 0.0 0.0 0.00 0.00 0.00 23 1016.2
20260508031825 63 0 0.0 0.0 0.00 0.00 0.00 22 1016.1
20260508031704 63 0 0.0 0.0 0.00 0.00 0.00 22 1016.0
20260508031604 63 0 0.0 0.0 0.00 0.00 0.00 23 1016.0
20260508031504 63 0 0.0 0.0 0.00 0.00 0.00 23 1015.9
20260508031404 63 0 0.0 0.0 0.00 0.00 0.00 23 1015.8
20260508031304 63 0 0.0 0.0 0.00 0.00 0.00 23 1015.7
20260508031204 63 0 0.0 0.0 0.00 0.00 0.00 23 1015.7
20260508031104 63 0 0.0 0.0 0.00 0.00 0.00 23 1015.7
20260508031004 63 0 0.0 0.0 0.00 0.00 0.00 23 1015.7
20260508030904 63 0 0.0 0.0 0.00 0.00 0.00 24 1015.6
20260508030825 63 0 0.0 0.0 0.00 0.00 0.00 24 1015.6
20260508030704 63 0 0.0 0.0 0.00 0.00 0.00 24 1015.5
20260508030625 63 0 0.0 0.0 0.00 0.00 0.00 24 1015.5
20260508030505 63 0 0.0 0.0 0.00 0.00 0.00 24 1015.5
20260508030404 63 0 0.0 0.0 0.00 0.00 0.00 25 1015.5
20260508030304 63 0 0.0 0.0 0.00 0.00 0.00 25 1015.6
20260508030204 63 0 0.0 0.0 0.00 0.00 0.00 25 1015.6
20260508030104 63 0 0.0 0.0 0.00 0.00 0.00 25 1015.6
20260508030004 63 0 0.0 0.0 0.00 0.00 0.00 25 1015.7
20260508025925 63 0 0.0 0.0 0.00 0.00 0.00 25 1015.7
20260508025804 63 0 0.0 0.0 0.00 0.00 0.00 25 1015.8
20260508025704 63 0 0.0 0.0 0.00 0.00 0.00 25 1015.8
20260508025604 63 0 0.0 0.0 0.00 0.00 0.00 25 1015.8
20260508025504 63 0 0.0 0.0 0.00 0.00 0.00 25 1015.8
20260508025404 63 0 0.0 0.0 0.00 0.00 0.00 26 1015.7
20260508025306 63 0 0.0 0.0 0.00 0.00 0.00 26 1015.7
20260508025225 63 0 0.0 0.0 0.00 0.00 0.00 26 1015.7
20260508025104 63 0 0.0 0.0 0.00 0.00 0.00 26 1015.7
20260508025004 63 0 0.0 0.0 0.00 0.00 0.00 26 1015.6
20260508024904 63 0 0.0 0.0 0.00 0.00 0.00 26 1015.6
20260508024804 63 0 0.0 0.0 0.00 0.00 0.00 26 1015.5
20260508024704 63 0 0.0 0.0 0.00 0.00 0.00 25 1015.4
20260508024604 63 0 0.0 0.0 0.00 0.00 0.00 25 1015.3
20260508024525 63 0 0.0 0.0 0.00 0.00 0.00 25 1015.2
20260508024404 63 0 0.0 0.0 0.00 0.00 0.00 25 1015.2
20260508024304 63 0 0.0 0.0 0.00 0.00 0.00 25 1015.1
20260508024204 63 0 0.0 0.0 0.00 0.00 0.00 25 1015.0
20260508024104 63 0 0.0 0.0 0.00 0.00 0.00 25 1015.0
20260508024004 63 0 0.0 0.0 0.00 0.00 0.00 25 1014.9
20260508023904 63 0 0.0 0.0 0.00 0.00 0.00 26 1014.7
20260508023804 63 0 0.0 0.0 0.00 0.00 0.00 26 1014.6
20260508023704 63 0 0.0 0.0 0.00 0.00 0.00 26 1014.4
20260508023605 63 0 0.0 0.0 0.00 0.00 0.00 26 1014.4
20260508023525 63 0 0.0 0.0 0.00 0.00 0.00 27 1014.3
20260508023404 63 0 0.0 0.0 0.00 0.00 0.00 28 1014.3
20260508023304 63 0 0.0 0.0 0.00 0.00 0.00 28 1014.3
20260508023225 63 0 0.0 0.0 0.00 0.00 0.00 28 1014.3
20260508023104 63 0 0.0 0.0 0.00 0.00 0.00 28 1014.2
20260508023004 63 0 0.0 0.0 0.00 0.00 0.00 29 1014.2
20260508022904 63 0 0.0 0.0 0.00 0.00 0.00 29 1014.2
20260508022804 63 0 0.0 0.0 0.00 0.00 0.00 30 1014.2
20260508022704 63 0 0.0 0.0 0.00 0.00 0.00 31 1014.2
20260508022626 63 0 0.0 0.0 0.00 0.00 0.00 31 1014.3
20260508022525 63 0 0.0 0.0 0.00 0.00 0.00 31 1014.3
20260508022404 63 0 0.0 0.0 0.00 0.00 0.00 31 1014.3
20260508022307 63 0 0.0 0.0 0.00 0.00 0.00 31 1014.3
20260508022204 63 0 0.0 0.0 0.00 0.00 0.00 32 1014.3
20260508022104 63 0 0.0 0.0 0.00 0.00 0.00 32 1014.3
20260508022005 63 0 0.0 0.0 0.00 0.00 0.00 32 1014.4
20260508021904 63 0 0.0 0.0 0.00 0.00 0.00 32 1014.4
20260508021804 63 202 0.9 5.2 0.00 0.00 0.00 32 1014.4
20260508021704 63 202 0.9 5.2 0.00 0.00 0.00 33 1014.4
20260508021604 63 202 0.9 5.2 0.00 0.00 0.00 32 1014.4
20260508021504 63 202 0.9 5.2 0.00 0.00 0.00 32 1014.4
20260508021425 63 202 0.9 5.2 0.00 0.00 0.00 32 1014.3
20260508021325 63 202 0.9 5.2 0.00 0.00 0.00 33 1014.3
20260508021204 63 202 0.9 5.2 0.00 0.00 0.00 33 1014.3
20260508021104 63 202 0.9 5.2 0.00 0.00 0.00 34 1014.3
20260508021004 63 202 0.9 5.2 0.00 0.00 0.00 34 1014.3
20260508020904 63 202 0.0 5.2 0.00 0.00 0.00 34 1014.3
20260508020825 63 200 0.0 5.2 0.00 0.00 0.00 34 1014.3
20260508020704 63 0 0.0 0.0 0.00 0.00 0.00 34 1014.2
20260508020604 63 0 0.0 0.0 0.00 0.00 0.00 34 1014.2
20260508020525 63 0 0.0 0.0 0.00 0.00 0.00 35 1014.2
20260508020404 63 0 0.0 0.0 0.00 0.00 0.00 34 1014.2
20260508020304 63 0 0.0 0.0 0.00 0.00 0.00 35 1014.3
20260508020204 63 0 0.0 0.0 0.00 0.00 0.00 35 1014.3
20260508020104 63 0 0.0 0.0 0.00 0.00 0.00 35 1014.3
20260508020025 63 0 0.0 0.0 0.00 0.00 0.00 35 1014.3
20260508015925 63 208 0.0 1.7 0.00 0.00 0.00 35 1014.2
20260508015804 63 208 0.0 1.7 0.00 0.00 0.00 35 1014.2
20260508015704 63 208 0.0 1.7 0.00 0.00 0.00 35 1014.2
20260508015604 63 208 0.0 1.7 0.00 0.00 0.00 35 1014.1
20260508015504 63 208 0.0 1.7 0.00 0.00 0.00 35 1014.0
20260508015404 63 208 0.0 1.7 0.00 0.00 0.00 35 1014.0
20260508015306 63 208 0.0 1.7 0.00 0.00 0.00 35 1014.0
20260508015204 63 208 0.0 1.7 0.00 0.00 0.00 36 1014.0
20260508015104 63 208 0.0 1.7 0.00 0.00 0.00 37 1014.1
20260508015004 64 208 0.0 1.7 0.00 0.00 0.00 37 1014.1
20260508014904 64 0 0.0 0.0 0.00 0.00 0.00 37 1014.1
20260508014804 64 0 0.0 0.0 0.00 0.00 0.00 38 1014.1
20260508014704 64 0 0.0 0.0 0.00 0.00 0.00 38 1014.1
20260508014625 64 0 0.0 0.0 0.00 0.00 0.00 39 1014.1
20260508014504 64 0 0.0 0.0 0.00 0.00 0.00 39 1014.0
20260508014404 64 0 0.0 0.0 0.00 0.00 0.00 40 1014.1
20260508014325 64 0 0.0 0.0 0.00 0.00 0.00 40 1014.0
20260508014225 64 0 0.0 0.0 0.00 0.00 0.00 40 1014.0
20260508014105 64 0 0.0 0.0 0.00 0.00 0.00 41 1014.0
20260508014004 64 0 0.0 0.0 0.00 0.00 0.00 41 1014.0
20260508013904 64 0 0.0 0.0 0.00 0.00 0.00 41 1014.0
20260508013804 64 0 0.0 0.0 0.00 0.00 0.00 42 1014.1
20260508013704 64 0 0.0 0.9 0.00 0.00 0.00 42 1014.2
20260508013604 64 0 0.0 0.9 0.00 0.00 0.00 42 1014.2
20260508013504 64 0 0.0 0.9 0.00 0.00 0.00 42 1014.3
20260508013404 64 0 0.0 0.9 0.00 0.00 0.00 43 1014.3
20260508013326 64 0 0.0 0.9 0.00 0.00 0.00 43 1014.4
20260508013204 64 0 0.0 0.9 0.00 0.00 0.00 43 1014.4
20260508013104 64 0 0.0 0.9 0.00 0.00 0.00 44 1014.4
20260508013005 64 0 0.0 0.9 0.00 0.00 0.00 44 1014.3
20260508012904 64 0 0.0 0.9 0.00 0.00 0.00 44 1014.2
20260508012804 64 0 0.0 0.9 0.00 0.00 0.00 45 1014.2
20260508012704 64 0 0.0 0.0 0.00 0.00 0.00 45 1014.3
20260508012604 64 0 0.0 0.0 0.00 0.00 0.00 45 1014.4
20260508012504 64 0 0.0 0.0 0.00 0.00 0.00 45 1014.6
20260508012404 64 0 0.0 0.0 0.00 0.00 0.00 45 1014.8
20260508012307 64 0 0.0 0.0 0.00 0.00 0.00 46 1014.9
20260508012225 64 0 0.0 0.0 0.00 0.00 0.00 46 1015.0
20260508012104 64 0 0.0 0.0 0.00 0.00 0.00 46 1015.1
20260508012025 64 0 0.0 0.0 0.00 0.00 0.00 46 1015.2
20260508011904 64 0 0.0 0.0 0.00 0.00 0.00 46 1015.2
20260508011825 64 0 0.0 0.0 0.00 0.00 0.00 46 1015.2
20260508011704 64 0 0.0 0.0 0.00 0.00 0.00 47 1015.1
20260508011604 64 0 0.0 0.0 0.00 0.00 0.00 47 1015.0
20260508011504 64 0 0.0 0.0 0.00 0.00 0.00 47 1014.8
20260508011404 64 0 0.0 0.0 0.00 0.00 0.00 47 1014.6
20260508011304 64 0 0.0 0.0 0.00 0.00 0.00 47 1014.5
20260508011204 64 0 0.0 0.0 0.00 0.00 0.00 48 1014.4
20260508011104 64 0 0.0 0.0 0.00 0.00 0.00 48 1014.4
20260508011004 64 0 0.0 0.0 0.00 0.00 0.00 48 1014.5
20260508010904 64 0 0.0 0.0 0.00 0.00 0.00 48 1014.5
20260508010804 64 0 0.0 0.0 0.00 0.00 0.00 48 1014.7
20260508010725 64 0 0.0 0.0 0.00 0.00 0.00 48 1014.8
20260508010604 64 0 0.0 0.0 0.00 0.00 0.00 48 1014.9
20260508010525 64 0 0.0 0.0 0.00 0.00 0.00 48 1014.9
20260508010404 64 0 0.0 0.0 0.00 0.00 0.00 49 1014.8
20260508010304 64 0 0.0 0.0 0.00 0.00 0.00 49 1014.6
20260508010204 64 0 0.0 0.0 0.00 0.00 0.00 49 1014.6
20260508010105 64 0 0.0 0.0 0.00 0.00 0.00 49 1014.5
20260508010004 64 0 0.0 0.0 0.00 0.00 0.00 49 1014.5
20260508005925 64 0 0.0 0.0 0.00 0.00 0.00 49 1014.5
20260508005804 64 0 0.0 0.0 0.00 0.00 0.00 49 1014.5
20260508005725 65 0 0.0 0.0 0.00 0.00 0.00 49 1014.6
20260508005604 65 0 0.0 0.0 0.00 0.00 0.00 49 1014.6
20260508005504 65 0 0.0 0.0 0.00 0.00 0.00 49 1014.7
20260508005404 65 0 0.0 0.0 0.00 0.00 0.00 50 1014.8
20260508005306 65 0 0.0 0.0 0.00 0.00 0.00 49 1014.8
20260508005204 65 0 0.0 0.0 0.00 0.00 0.00 50 1014.9
20260508005104 65 212 0.0 1.7 0.00 0.00 0.00 50 1015.1
20260508005004 65 225 0.0 1.7 0.00 0.00 0.00 50 1015.1
20260508004904 65 250 0.0 7.0 0.00 0.00 0.00 50 1015.1
20260508004825 65 250 0.0 7.0 0.00 0.00 0.00 50 1015.1
20260508004704 65 251 0.0 7.0 0.00 0.00 0.00 50 1015.1
20260508004604 65 251 0.0 7.0 0.00 0.00 0.00 50 1015.0
20260508004504 65 251 0.0 7.0 0.00 0.00 0.00 50 1014.9
20260508004404 65 251 0.0 7.0 0.00 0.00 0.00 50 1014.8
20260508004304 65 244 0.0 7.0 0.00 0.00 0.00 50 1014.6
20260508004204 65 244 0.0 7.0 0.00 0.00 0.00 50 1014.5
20260508004104 65 247 0.0 7.0 0.00 0.00 0.00 50 1014.4
20260508004004 65 249 0.0 7.0 0.00 0.00 0.00 50 1014.4
20260508003925 65 260 0.0 7.0 0.00 0.00 0.00 50 1014.4
20260508003825 65 259 0.0 7.0 0.00 0.00 0.00 50 1014.5
20260508003704 65 259 0.0 7.0 0.00 0.00 0.00 50 1014.8
20260508003604 65 259 0.0 7.0 0.00 0.00 0.00 50 1014.9
20260508003525 65 259 0.0 7.0 0.00 0.00 0.00 50 1015.0
20260508003404 65 259 0.0 7.0 0.00 0.00 0.00 50 1015.1
20260508003304 65 263 0.0 7.0 0.00 0.00 0.00 50 1015.1
20260508003204 65 263 0.0 7.0 0.00 0.00 0.00 50 1014.9
20260508003105 65 261 0.0 7.0 0.00 0.00 0.00 50 1014.8
20260508003025 65 261 0.0 7.0 0.00 0.00 0.00 50 1014.7
20260508002904 65 229 0.0 3.5 0.00 0.00 0.00 50 1014.8
20260508002825 65 228 0.0 3.5 0.00 0.00 0.00 50 1015.1
20260508002704 65 221 0.0 3.5 0.00 0.00 0.00 50 1015.4
20260508002625 65 221 0.0 3.5 0.00 0.00 0.00 50 1015.6
20260508002504 65 218 0.0 3.5 0.00 0.00 0.00 51 1015.7
20260508002404 65 211 0.0 3.5 0.00 0.00 0.00 51 1015.8
20260508002307 65 211 0.0 3.5 0.00 0.00 0.00 51 1015.7
20260508002204 65 211 0.0 3.5 0.00 0.00 0.00 51 1015.5
20260508002104 65 214 0.0 3.5 0.00 0.00 0.00 51 1015.3
20260508002004 65 218 0.0 7.8 0.00 0.00 0.00 51 1015.2
20260508001925 65 217 0.0 7.8 0.00 0.00 0.00 51 1015.3
20260508001804 66 216 0.0 7.8 0.00 0.00 0.00 51 1015.5
20260508001704 66 216 0.0 7.8 0.00 0.00 0.00 51 1015.7
20260508001604 66 216 0.0 7.8 0.00 0.00 0.00 51 1015.8
20260508001504 66 217 0.0 7.8 0.00 0.00 0.00 51 1015.8
20260508001404 66 218 0.0 7.8 0.00 0.00 0.00 51 1015.7
20260508001304 66 219 0.0 7.8 0.00 0.00 0.00 51 1015.5
20260508001225 66 219 0.0 7.8 0.00 0.00 0.00 51 1015.5
20260508001125 66 219 0.0 7.8 0.00 0.00 0.00 51 1015.5
20260508001004 66 0 0.0 0.9 0.00 0.00 0.00 51 1015.6
20260508000904 66 0 0.0 0.9 0.00 0.00 0.00 51 1015.7
20260508000804 66 0 0.0 0.9 0.00 0.00 0.00 51 1015.8
20260508000704 66 0 0.0 0.9 0.00 0.00 0.00 51 1015.8
20260508000625 66 0 0.0 0.9 0.00 0.00 0.00 51 1015.8
20260508000504 66 232 0.0 5.2 0.00 0.00 0.00 51 1015.6
20260508000405 66 234 0.0 6.1 0.00 0.00 0.00 51 1015.6
20260508000305 66 234 0.0 6.1 0.00 0.00 0.00 51 1015.7
20260508000205 66 234 0.0 6.1 0.00 0.00 0.00 51 1015.6
20260508000104 66 234 0.0 6.1 0.00 0.00 0.00 51 1015.7
20260508000025 66 234 0.0 6.1 0.00 0.00 0.00 51 1015.6
20260507235904 66 234 0.0 6.1 0.00 0.00 0.00 51 1015.5
20260507235825 66 234 0.0 6.1 0.00 0.00 0.00 51 1015.4
20260507235704 66 234 0.0 6.1 0.00 0.00 0.00 51 1015.3
20260507235625 66 234 0.0 6.1 0.00 0.00 0.00 51 1015.3
20260507235504 66 233 0.0 6.1 0.00 0.00 0.00 51 1015.4
20260507235404 66 0 0.0 0.0 0.00 0.00 0.00 51 1015.5
20260507235306 66 0 0.0 0.0 0.00 0.00 0.00 50 1015.7
20260507235204 66 0 0.0 0.0 0.00 0.00 0.00 51 1015.8
20260507235104 66 0 0.0 0.0 0.00 0.00 0.00 51 1015.8
20260507235004 66 0 0.0 0.0 0.00 0.00 0.00 51 1015.9
20260507234904 66 0 0.0 0.0 0.00 0.00 0.00 51 1015.8
20260507234804 66 0 0.0 0.0 0.00 0.00 0.00 51 1015.8
20260507234704 66 0 0.0 0.0 0.00 0.00 0.00 51 1015.7
20260507234604 66 0 0.0 0.0 0.00 0.00 0.00 51 1015.7
20260507234525 66 0 0.0 0.0 0.00 0.00 0.00 51 1015.7
20260507234404 66 0 0.0 0.0 0.00 0.00 0.00 51 1015.7
20260507234304 66 0 0.0 0.0 0.00 0.00 0.00 51 1015.8
20260507234204 66 0 0.0 0.0 0.00 0.00 0.00 50 1015.8
20260507234104 66 0 0.0 0.0 0.00 0.00 0.00 51 1015.8
20260507234004 66 0 0.0 0.0 0.00 0.00 0.00 51 1015.9
20260507233904 66 0 0.0 0.0 0.00 0.00 0.00 51 1015.9
20260507233804 66 0 0.0 0.0 0.00 0.00 0.00 50 1015.9
20260507233704 66 0 0.0 0.0 0.00 0.00 0.00 51 1015.8
20260507233604 66 0 0.0 0.0 0.00 0.00 0.00 51 1015.9
20260507233504 66 0 0.0 0.0 0.00 0.00 0.00 51 1015.8
20260507233425 66 0 0.0 0.0 0.00 0.00 0.00 51 1015.8
20260507233304 66 220 0.0 4.3 0.00 0.00 0.00 51 1015.8
20260507233204 66 219 0.9 5.2 0.00 0.00 0.00 51 1015.7
20260507233104 66 219 0.9 5.2 0.00 0.00 0.00 51 1015.8
20260507233004 66 219 0.9 5.2 0.00 0.00 0.00 51 1015.8
20260507232904 66 219 0.9 5.2 0.00 0.00 0.00 51 1015.8
20260507232804 66 219 0.9 5.2 0.00 0.00 0.00 51 1015.7
20260507232705 66 219 0.9 5.2 0.00 0.00 0.00 51 1015.6
20260507232604 66 219 0.9 5.2 0.00 0.00 0.00 51 1015.6
20260507232504 66 219 0.9 5.2 0.00 0.00 0.00 51 1015.5
20260507232404 66 219 0.9 5.2 0.00 0.00 0.00 51 1015.5
20260507232306 66 219 0.0 5.2 0.00 0.00 0.00 51 1015.5
20260507232204 66 0 0.0 0.9 0.00 0.00 0.00 51 1015.5
20260507232104 66 0 0.0 0.9 0.00 0.00 0.00 51 1015.7
20260507232004 66 0 0.0 0.9 0.00 0.00 0.00 51 1015.7
20260507231904 66 0 0.0 0.9 0.00 0.00 0.00 51 1015.7
20260507231804 66 0 0.0 0.9 0.00 0.00 0.00 51 1015.7
20260507231704 66 0 0.0 0.9 0.00 0.00 0.00 51 1015.7
20260507231604 66 0 0.0 0.0 0.00 0.00 0.00 51 1015.7
20260507231504 66 0 0.0 0.0 0.00 0.00 0.00 51 1015.8
20260507231404 66 0 0.0 0.0 0.00 0.00 0.00 51 1015.9
20260507231304 66 0 0.0 0.0 0.00 0.00 0.00 51 1016.0
20260507231204 66 0 0.0 0.0 0.00 0.00 0.00 51 1016.0
20260507231104 66 0 0.0 0.0 0.00 0.00 0.00 50 1016.0
20260507231004 66 0 0.0 0.0 0.00 0.00 0.00 50 1016.0
20260507230904 66 0 0.0 0.0 0.00 0.00 0.00 51 1015.9
20260507230805 66 0 0.0 0.0 0.00 0.00 0.00 51 1015.8